FW4770 Weather Reports


time (UTC)temp
F
wind
direction
speed
knots
gust
knots
rain 1hr
in
rain 24hr
in
rain mn
in
humidity
%
barometer
mb
20260508100826 36 75 3.5 4.3 0.00 0.00 0.00 79 1008.4
20260508100752 36 75 3.5 4.3 0.00 0.00 0.00 79 1008.5
20260508100608 36 76 3.5 4.3 0.00 0.00 0.00 79 1008.4
20260508100513 36 78 4.3 4.3 0.00 0.00 0.00 79 1008.5
20260508100416 36 78 3.5 4.3 0.00 0.00 0.00 79 1008.5
20260508100320 36 82 3.5 5.2 0.00 0.00 0.00 78 1008.5
20260508100209 36 117 2.6 5.2 0.00 0.00 0.00 78 1008.5
20260508100112 36 234 1.7 3.5 0.00 0.00 0.00 78 1008.5
20260508100018 36 235 0.9 1.7 0.00 0.00 0.00 78 1008.5
20260508095921 36 235 0.9 1.7 0.00 0.00 0.00 78 1008.5
20260508095824 36 235 0.0 0.9 0.00 0.00 0.00 78 1008.5
20260508095709 36 235 0.0 0.0 0.00 0.00 0.00 78 1008.5
20260508095617 36 235 0.0 0.9 0.00 0.00 0.00 78 1008.5
20260508095520 36 235 0.0 1.7 0.00 0.00 0.00 78 1008.5
20260508095425 36 235 0.0 1.7 0.00 0.00 0.00 78 1008.4
20260508095329 36 235 0.0 1.7 0.00 0.00 0.00 78 1008.5
20260508095212 36 235 0.0 1.7 0.00 0.00 0.00 78 1008.4
20260508095117 36 235 0.0 1.7 0.00 0.00 0.00 78 1008.4
20260508095005 36 235 0.0 1.7 0.00 0.00 0.00 78 1008.5
20260508094910 36 235 0.0 1.7 0.00 0.00 0.00 78 1008.5
20260508094814 36 235 0.9 2.6 0.00 0.00 0.00 78 1008.4
20260508094719 36 235 0.9 2.6 0.00 0.00 0.00 78 1008.5
20260508094623 36 235 0.9 2.6 0.00 0.00 0.00 78 1008.5
20260508094526 36 235 0.9 2.6 0.00 0.00 0.00 78 1008.5
20260508094413 36 235 0.9 2.6 0.00 0.00 0.00 78 1008.5
20260508094318 36 235 0.9 2.6 0.00 0.00 0.00 78 1008.5
20260508094223 36 235 0.9 2.6 0.00 0.00 0.00 79 1008.5
20260508094107 36 235 1.7 2.6 0.00 0.00 0.00 79 1008.4
20260508094031 36 235 1.7 2.6 0.00 0.00 0.00 79 1008.5
20260508093908 36 235 0.9 3.5 0.00 0.00 0.00 79 1008.5
20260508093812 36 235 0.9 3.5 0.00 0.00 0.00 79 1008.4
20260508093739 36 235 0.9 3.5 0.00 0.00 0.00 79 1008.4
20260508093643 36 235 0.9 3.5 0.00 0.00 0.00 79 1008.4
20260508093506 36 235 0.9 3.5 0.00 0.00 0.00 80 1008.4
20260508093431 36 235 0.9 3.5 0.00 0.00 0.00 80 1008.4
20260508093308 36 234 0.9 3.5 0.00 0.00 0.00 80 1008.4
20260508093212 36 234 1.7 3.5 0.00 0.00 0.00 80 1008.4
20260508093117 36 234 1.7 3.5 0.00 0.00 0.00 80 1008.4
20260508093025 36 237 0.9 2.6 0.00 0.00 0.00 80 1008.4
20260508092929 36 237 0.9 2.6 0.00 0.00 0.00 79 1008.4
20260508092813 36 237 0.9 2.6 0.00 0.00 0.00 79 1008.4
20260508092716 36 237 0.9 2.6 0.00 0.00 0.00 79 1008.4
20260508092621 36 237 0.9 2.6 0.00 0.00 0.00 79 1008.4
20260508092506 36 237 1.7 2.6 0.00 0.00 0.00 79 1008.4
20260508092415 36 237 1.7 2.6 0.00 0.00 0.00 79 1008.4
20260508092339 36 237 1.7 2.6 0.00 0.00 0.00 79 1008.3
20260508092222 36 237 1.7 2.6 0.00 0.00 0.00 80 1008.3
20260508092146 36 237 0.9 2.6 0.00 0.00 0.00 80 1008.4
20260508092009 36 237 0.9 2.6 0.00 0.00 0.00 81 1008.4
20260508091934 36 237 0.9 2.6 0.00 0.00 0.00 81 1008.4
20260508091818 36 237 0.9 2.6 0.00 0.00 0.00 81 1008.5
20260508091742 36 237 0.9 2.6 0.00 0.00 0.00 82 1008.4
20260508091609 36 237 0.9 2.6 0.00 0.00 0.00 82 1008.4
20260508091514 36 237 0.9 2.6 0.00 0.00 0.00 82 1008.5
20260508091419 36 237 0.9 2.6 0.00 0.00 0.00 81 1008.4
20260508091345 36 237 0.9 2.6 0.00 0.00 0.00 81 1008.4
20260508091229 36 237 0.9 2.6 0.00 0.00 0.00 81 1008.4
20260508091106 37 237 0.9 2.6 0.00 0.00 0.00 81 1008.4
20260508091013 37 237 0.9 2.6 0.00 0.00 0.00 81 1008.5
20260508090918 37 237 0.9 2.6 0.00 0.00 0.00 82 1008.5
20260508090819 37 237 0.9 2.6 0.00 0.00 0.00 81 1008.5
20260508090723 37 237 0.9 2.6 0.00 0.00 0.00 82 1008.5
20260508090608 37 237 0.9 2.6 0.00 0.00 0.00 82 1008.5
20260508090512 37 237 0.9 2.6 0.00 0.00 0.00 81 1008.4
20260508090421 37 237 1.7 2.6 0.00 0.00 0.00 81 1008.4
20260508090306 37 237 1.7 2.6 0.00 0.00 0.00 81 1008.4
20260508090230 37 237 1.7 2.6 0.00 0.00 0.00 81 1008.4
20260508090107 37 237 1.7 2.6 0.00 0.00 0.00 81 1008.5
20260508090012 37 237 1.7 2.6 0.00 0.00 0.00 81 1008.4
20260508085916 37 237 0.9 2.6 0.00 0.00 0.00 80 1008.4
20260508085840 37 237 0.9 1.7 0.00 0.00 0.00 80 1008.4
20260508085706 37 237 0.0 1.7 0.00 0.00 0.00 80 1008.5
20260508085630 37 237 0.0 1.7 0.00 0.00 0.00 80 1008.4
20260508085507 37 237 0.0 1.7 0.00 0.00 0.00 80 1008.4
20260508085430 37 237 0.9 1.7 0.00 0.00 0.00 80 1008.4
20260508085307 37 237 0.9 2.6 0.00 0.00 0.00 80 1008.5
20260508085212 37 237 0.9 2.6 0.00 0.00 0.00 80 1008.5
20260508085139 37 237 0.9 2.6 0.00 0.00 0.00 79 1008.5
20260508085022 37 237 0.9 2.6 0.00 0.00 0.00 79 1008.4
20260508084925 37 237 0.9 2.6 0.00 0.00 0.00 79 1008.4
20260508084808 37 237 0.9 2.6 0.00 0.00 0.00 79 1008.5
20260508084712 37 237 0.9 2.6 0.00 0.00 0.00 78 1008.5
20260508084615 37 237 0.9 2.6 0.00 0.00 0.00 78 1008.4
20260508084522 37 237 0.9 2.6 0.00 0.00 0.00 78 1008.5
20260508084426 37 237 0.9 2.6 0.00 0.00 0.00 78 1008.5
20260508084310 37 237 0.9 2.6 0.00 0.00 0.00 78 1008.5
20260508084213 37 237 0.9 2.6 0.00 0.00 0.00 78 1008.5
20260508084117 37 237 0.9 2.6 0.00 0.00 0.00 78 1008.5
20260508084020 37 237 0.9 2.6 0.00 0.00 0.00 78 1008.5
20260508083927 37 237 0.9 2.6 0.00 0.00 0.00 78 1008.5
20260508083831 37 237 0.9 3.5 0.00 0.00 0.00 78 1008.4
20260508083707 37 237 0.9 3.5 0.00 0.00 0.00 78 1008.5
20260508083629 37 237 0.9 3.5 0.00 0.00 0.00 79 1008.5
20260508083512 37 237 1.7 3.5 0.00 0.00 0.00 79 1008.5
20260508083416 37 237 1.7 3.5 0.00 0.00 0.00 79 1008.5
20260508083319 37 237 1.7 3.5 0.00 0.00 0.00 79 1008.5
20260508083228 37 237 1.7 3.5 0.00 0.00 0.00 79 1008.5
20260508083131 37 237 1.7 3.5 0.00 0.00 0.00 80 1008.5
20260508083008 37 237 1.7 3.5 0.00 0.00 0.00 80 1008.6
20260508082931 37 237 1.7 3.5 0.00 0.00 0.00 80 1008.5
20260508082834 37 237 1.7 3.5 0.00 0.00 0.00 80 1008.5
20260508082716 37 237 1.7 3.5 0.00 0.00 0.00 80 1008.6
20260508082620 37 237 1.7 3.5 0.00 0.00 0.00 80 1008.6
20260508082508 37 238 1.7 3.5 0.00 0.00 0.00 80 1008.6
20260508082432 37 238 1.7 3.5 0.00 0.00 0.00 80 1008.5
20260508082309 37 237 1.7 3.5 0.00 0.00 0.00 80 1008.5
20260508082213 37 238 1.7 3.5 0.00 0.00 0.00 81 1008.6
20260508082116 37 237 1.7 3.5 0.00 0.00 0.00 81 1008.6
20260508082040 37 237 1.7 3.5 0.00 0.00 0.00 81 1008.5
20260508081943 37 237 1.7 3.5 0.00 0.00 0.00 81 1008.5
20260508081811 37 238 1.7 3.5 0.00 0.00 0.00 81 1008.6
20260508081715 37 238 1.7 3.5 0.00 0.00 0.00 81 1008.6
20260508081619 37 238 1.7 3.5 0.00 0.00 0.00 81 1008.5
20260508081543 37 238 1.7 3.5 0.00 0.00 0.00 81 1008.5
20260508081426 37 238 1.7 3.5 0.00 0.00 0.00 81 1008.6
20260508081309 37 238 1.7 3.5 0.00 0.00 0.00 81 1008.5
20260508081211 37 238 1.7 3.5 0.00 0.00 0.00 81 1008.5
20260508081119 37 237 1.7 2.6 0.00 0.00 0.00 81 1008.6
20260508081044 37 238 1.7 2.6 0.00 0.00 0.00 82 1008.6
20260508080927 37 238 1.7 2.6 0.00 0.00 0.00 82 1008.6
20260508080831 37 238 1.7 2.6 0.00 0.00 0.00 82 1008.6
20260508080714 37 238 1.7 3.5 0.00 0.00 0.00 82 1008.5
20260508080618 37 238 1.7 3.5 0.00 0.00 0.00 82 1008.6
20260508080543 37 238 1.7 3.5 0.00 0.00 0.00 81 1008.6
20260508080410 37 238 1.7 3.5 0.00 0.00 0.00 82 1008.6
20260508080334 37 238 1.7 3.5 0.00 0.00 0.00 82 1008.5
20260508080209 37 238 1.7 3.5 0.00 0.00 0.00 82 1008.6
20260508080112 37 238 1.7 3.5 0.00 0.00 0.00 82 1008.6
20260508080037 37 238 1.7 3.5 0.00 0.00 0.00 82 1008.6
20260508075919 37 238 1.7 3.5 0.00 0.00 0.00 82 1008.6
20260508075822 37 238 1.7 3.5 0.00 0.00 0.00 82 1008.6
20260508075731 37 238 1.7 3.5 0.00 0.00 0.00 82 1008.6
20260508075607 37 238 1.7 3.5 0.00 0.00 0.00 82 1008.6
20260508075530 37 238 1.7 3.5 0.00 0.00 0.00 82 1008.6
20260508075408 37 238 1.7 3.5 0.00 0.00 0.00 82 1008.7
20260508075312 37 238 1.7 2.6 0.00 0.00 0.00 82 1008.7
20260508075235 37 238 1.7 2.6 0.00 0.00 0.00 82 1008.6
20260508075118 37 238 0.9 2.6 0.00 0.00 0.00 82 1008.6
20260508075006 37 238 0.9 2.6 0.00 0.00 0.00 82 1008.7
20260508074931 37 238 0.9 2.6 0.00 0.00 0.00 82 1008.6
20260508074807 37 238 0.9 2.6 0.00 0.00 0.00 82 1008.6
20260508074710 37 238 1.7 2.6 0.00 0.00 0.00 82 1008.7
20260508074614 37 238 1.7 2.6 0.00 0.00 0.00 82 1008.6
20260508074518 37 238 1.7 2.6 0.00 0.00 0.00 82 1008.7
20260508074406 37 238 1.7 2.6 0.00 0.00 0.00 82 1008.7
20260508074330 37 238 0.9 2.6 0.00 0.00 0.00 82 1008.6
20260508074207 37 238 0.9 2.6 0.00 0.00 0.00 83 1008.7
20260508074129 37 238 0.9 2.6 0.00 0.00 0.00 83 1008.7
20260508074012 37 238 1.7 2.6 0.00 0.00 0.00 82 1008.7
20260508073936 37 238 1.7 2.6 0.00 0.00 0.00 82 1008.7
20260508073819 37 238 1.7 2.6 0.00 0.00 0.00 82 1008.7
20260508073707 37 238 1.7 2.6 0.00 0.00 0.00 82 1008.7
20260508073610 37 238 0.9 2.6 0.00 0.00 0.00 82 1008.8
20260508073514 37 238 1.7 2.6 0.00 0.00 0.00 82 1008.8
20260508073418 37 238 1.7 2.6 0.00 0.00 0.00 82 1008.7
20260508073320 37 238 1.7 2.6 0.00 0.00 0.00 82 1008.8
20260508073206 37 238 0.9 2.6 0.00 0.00 0.00 82 1008.7
20260508073131 37 238 0.9 2.6 0.00 0.00 0.00 82 1008.8
20260508073006 37 238 1.7 2.6 0.00 0.00 0.00 82 1008.8
20260508072909 37 238 1.7 2.6 0.00 0.00 0.00 82 1008.7
20260508072832 37 238 1.7 2.6 0.00 0.00 0.00 82 1008.8
20260508072735 37 238 1.7 2.6 0.00 0.00 0.00 82 1008.7
20260508072617 37 238 1.7 2.6 0.00 0.00 0.00 82 1008.7
20260508072520 37 239 1.7 2.6 0.00 0.00 0.00 82 1008.7
20260508072406 37 239 1.7 2.6 0.00 0.00 0.00 82 1008.7
20260508072308 37 239 0.9 2.6 0.00 0.00 0.00 82 1008.7
20260508072212 37 239 0.9 2.6 0.00 0.00 0.00 82 1008.8
20260508072134 37 239 0.9 2.6 0.00 0.00 0.00 82 1008.7
20260508072017 37 239 1.7 2.6 0.00 0.00 0.00 82 1008.7
20260508071919 37 239 1.7 2.6 0.00 0.00 0.00 82 1008.7
20260508071807 37 239 1.7 2.6 0.00 0.00 0.00 83 1008.8
20260508071709 37 239 1.7 2.6 0.00 0.00 0.00 83 1008.8
20260508071612 37 239 1.7 2.6 0.00 0.00 0.00 83 1008.8
20260508071516 37 239 1.7 2.6 0.00 0.00 0.00 82 1008.7
20260508071418 37 239 1.7 2.6 0.00 0.00 0.00 82 1008.8
20260508071342 37 240 1.7 2.6 0.00 0.00 0.00 82 1008.8
20260508071207 37 240 1.7 2.6 0.00 0.00 0.00 83 1008.7
20260508071130 37 240 1.7 2.6 0.00 0.00 0.00 83 1008.7
20260508071054 37 240 1.7 2.6 0.00 0.00 0.00 83 1008.8
20260508070910 37 239 1.7 2.6 0.00 0.00 0.00 83 1008.8
20260508070812 37 239 1.7 2.6 0.00 0.00 0.00 83 1008.8
20260508070716 37 239 0.9 2.6 0.00 0.00 0.00 83 1008.8
20260508070619 37 239 0.9 2.6 0.00 0.00 0.00 83 1008.8
20260508070506 37 239 1.7 2.6 0.00 0.00 0.00 83 1008.7
20260508070430 37 239 1.7 3.5 0.00 0.00 0.00 83 1008.8
20260508070306 37 239 0.9 3.5 0.00 0.00 0.00 83 1008.8
20260508070208 37 239 0.9 3.5 0.00 0.00 0.00 83 1008.8
20260508070111 37 239 0.9 3.5 0.00 0.00 0.00 83 1008.8
20260508070014 37 239 0.9 3.5 0.00 0.00 0.00 83 1008.8
20260508065919 37 239 0.9 3.5 0.00 0.00 0.00 83 1008.7
20260508065825 37 239 0.9 3.5 0.00 0.00 0.00 83 1008.8
20260508065728 36 239 1.7 3.5 0.00 0.00 0.00 83 1008.8
20260508065610 36 239 1.7 3.5 0.00 0.00 0.00 83 1008.8
20260508065535 36 239 0.9 2.6 0.00 0.00 0.00 82 1008.9
20260508065416 36 239 0.9 2.6 0.00 0.00 0.00 82 1008.8
20260508065320 36 239 0.9 2.6 0.00 0.00 0.00 82 1008.8
20260508065243 36 239 0.9 2.6 0.00 0.00 0.00 82 1008.8
20260508065109 36 240 0.9 2.6 0.00 0.00 0.00 82 1008.9
20260508065033 36 239 0.9 2.6 0.00 0.00 0.00 82 1008.9
20260508064909 36 239 0.9 2.6 0.00 0.00 0.00 81 1008.8
20260508064832 36 239 0.9 2.6 0.00 0.00 0.00 81 1008.9
20260508064716 36 239 0.9 2.6 0.00 0.00 0.00 81 1008.9
20260508064638 36 239 0.9 2.6 0.00 0.00 0.00 80 1008.8
20260508064520 36 239 0.9 2.6 0.00 0.00 0.00 80 1008.9
20260508064407 36 239 0.9 2.6 0.00 0.00 0.00 80 1008.9
20260508064330 36 239 1.7 2.6 0.00 0.00 0.00 79 1008.9
20260508064231 36 239 0.9 2.6 0.00 0.00 0.00 79 1008.9
20260508064108 36 239 0.9 2.6 0.00 0.00 0.00 79 1008.9
20260508064010 36 239 0.9 2.6 0.00 0.00 0.00 79 1008.9
20260508063913 37 239 0.9 2.6 0.00 0.00 0.00 79 1008.9
20260508063817 36 239 0.9 2.6 0.00 0.00 0.00 79 1009.0
20260508063725 37 239 0.9 2.6 0.00 0.00 0.00 79 1008.9
20260508063630 37 239 0.9 2.6 0.00 0.00 0.00 79 1009.0
20260508063513 37 239 0.9 1.7 0.00 0.00 0.00 79 1009.0
20260508063436 37 240 0.9 1.7 0.00 0.00 0.00 78 1009.0
20260508063318 37 239 0.9 1.7 0.00 0.00 0.00 78 1008.9
20260508063223 37 239 0.9 1.7 0.00 0.00 0.00 79 1009.0
20260508063109 37 239 0.9 1.7 0.00 0.00 0.00 79 1008.9
20260508063013 37 239 0.9 1.7 0.00 0.00 0.00 79 1009.1
20260508062938 37 239 0.9 1.7 0.00 0.00 0.00 79 1009.0
20260508062822 37 239 0.9 1.7 0.00 0.00 0.00 79 1009.1
20260508062706 37 239 1.7 1.7 0.00 0.00 0.00 79 1009.0
20260508062630 37 240 1.7 1.7 0.00 0.00 0.00 79 1009.0
20260508062514 37 240 0.9 1.7 0.00 0.00 0.00 79 1009.0
20260508062422 37 240 0.9 1.7 0.00 0.00 0.00 79 1009.1
20260508062307 37 240 0.9 1.7 0.00 0.00 0.00 79 1009.1
20260508062230 37 240 0.9 1.7 0.00 0.00 0.00 79 1009.1
20260508062108 36 240 0.9 1.7 0.00 0.00 0.00 79 1009.1
20260508062032 36 240 0.9 1.7 0.00 0.00 0.00 79 1009.1
20260508061916 36 240 0.9 1.7 0.00 0.00 0.00 79 1009.1
20260508061821 36 240 0.9 1.7 0.00 0.00 0.00 79 1009.1
20260508061729 36 240 0.9 1.7 0.00 0.00 0.00 79 1009.1
20260508061613 36 240 0.9 1.7 0.00 0.00 0.00 79 1009.1
20260508061537 36 240 0.9 1.7 0.00 0.00 0.00 79 1009.1
20260508061420 36 240 0.9 1.7 0.00 0.00 0.00 79 1009.1
20260508061324 36 240 0.9 1.7 0.00 0.00 0.00 79 1009.2
20260508061210 36 240 0.9 1.7 0.00 0.00 0.00 79 1009.1
20260508061117 36 240 0.9 1.7 0.00 0.00 0.00 79 1009.2
20260508061021 37 240 0.9 1.7 0.00 0.00 0.00 79 1009.1
20260508060924 36 240 0.9 1.7 0.00 0.00 0.00 79 1009.2
20260508060808 36 240 0.9 2.6 0.00 0.00 0.00 80 1009.2
20260508060732 36 240 0.9 2.6 0.00 0.00 0.00 80 1009.1
20260508060615 36 240 0.9 2.6 0.00 0.00 0.00 80 1009.2
20260508060519 36 240 0.9 2.6 0.00 0.00 0.00 80 1009.1
20260508060408 37 240 0.9 2.6 0.00 0.00 0.00 81 1009.1
20260508060333 37 240 0.9 2.6 0.00 0.00 0.00 81 1009.1
20260508060209 37 240 0.9 2.6 0.00 0.00 0.00 82 1009.1
20260508060113 37 240 0.9 2.6 0.00 0.00 0.00 82 1009.1
20260508060018 37 240 0.9 2.6 0.00 0.00 0.00 82 1009.2
20260508055941 37 240 0.9 2.6 0.00 0.00 0.00 82 1009.2
20260508055809 37 240 0.9 2.6 0.00 0.00 0.00 82 1009.2
20260508055712 37 240 1.7 2.6 0.00 0.00 0.00 82 1009.2
20260508055616 37 240 1.7 2.6 0.00 0.00 0.00 82 1009.2
20260508055520 37 240 1.7 2.6 0.00 0.00 0.00 81 1009.2
20260508055424 37 240 0.9 2.6 0.00 0.00 0.00 81 1009.2
20260508055308 37 240 0.9 2.6 0.00 0.00 0.00 81 1009.2
20260508055217 37 240 0.9 2.6 0.00 0.00 0.00 81 1009.2
20260508055121 37 240 0.9 2.6 0.00 0.00 0.00 81 1009.2
20260508055006 37 240 0.9 2.6 0.00 0.00 0.00 81 1009.2
20260508054911 37 240 1.7 2.6 0.00 0.00 0.00 81 1009.2
20260508054815 37 240 1.7 2.6 0.00 0.00 0.00 81 1009.2
20260508054721 37 240 0.9 2.6 0.00 0.00 0.00 81 1009.2
20260508054608 37 240 0.9 2.6 0.00 0.00 0.00 80 1009.2
20260508054513 37 240 0.9 2.6 0.00 0.00 0.00 80 1009.2
20260508054418 37 240 1.7 2.6 0.00 0.00 0.00 80 1009.2
20260508054323 37 240 1.7 2.6 0.00 0.00 0.00 80 1009.3
20260508054227 37 240 0.9 2.6 0.00 0.00 0.00 80 1009.3
20260508054110 37 240 0.9 2.6 0.00 0.00 0.00 80 1009.3
20260508054039 37 240 0.9 2.6 0.00 0.00 0.00 80 1009.3
20260508053922 37 240 0.9 2.6 0.00 0.00 0.00 79 1009.2
20260508053826 37 240 0.9 2.6 0.00 0.00 0.00 79 1009.3
20260508053730 38 240 0.9 2.6 0.00 0.00 0.00 79 1009.3
20260508053633 38 240 0.9 2.6 0.00 0.00 0.00 79 1009.3
20260508053516 38 240 0.9 2.6 0.00 0.00 0.00 79 1009.3
20260508053441 38 240 0.9 2.6 0.00 0.00 0.00 78 1009.3
20260508053308 38 240 1.7 2.6 0.00 0.00 0.00 78 1009.3
20260508053232 38 240 1.7 2.6 0.00 0.00 0.00 78 1009.4
20260508053134 38 240 1.7 2.6 0.00 0.00 0.00 78 1009.4
20260508053017 38 240 0.9 2.6 0.00 0.00 0.00 78 1009.3
20260508052920 38 240 1.7 2.6 0.00 0.00 0.00 77 1009.4
20260508052824 38 240 1.7 2.6 0.00 0.00 0.00 77 1009.4
20260508052709 38 240 0.9 2.6 0.00 0.00 0.00 76 1009.3
20260508052616 38 240 0.9 2.6 0.00 0.00 0.00 76 1009.3
20260508052520 38 239 0.9 1.7 0.00 0.00 0.00 75 1009.4
20260508052444 38 239 0.9 1.7 0.00 0.00 0.00 75 1009.4
20260508052308 38 239 0.9 1.7 0.00 0.00 0.00 74 1009.4
20260508052213 38 239 0.0 1.7 0.00 0.00 0.00 74 1009.4
20260508052138 38 240 0.9 1.7 0.00 0.00 0.00 73 1009.4
20260508052022 38 239 0.9 1.7 0.00 0.00 0.00 73 1009.4
20260508051930 38 239 0.9 1.7 0.00 0.00 0.00 73 1009.4
20260508051812 38 240 0.0 1.7 0.00 0.00 0.00 73 1009.4
20260508051716 38 239 0.0 1.7 0.00 0.00 0.00 73 1009.4
20260508051621 38 239 0.0 0.0 0.00 0.00 0.00 73 1009.4
20260508051525 38 239 0.0 0.0 0.00 0.00 0.00 72 1009.4
20260508051409 38 239 0.0 0.0 0.00 0.00 0.00 72 1009.4
20260508051317 38 239 0.0 0.0 0.00 0.00 0.00 72 1009.4
20260508051242 38 239 0.0 0.0 0.00 0.00 0.00 73 1009.4
20260508051106 38 239 0.0 0.0 0.00 0.00 0.00 73 1009.3
20260508051031 38 239 0.0 1.7 0.00 0.00 0.00 73 1009.4
20260508050933 38 239 0.0 1.7 0.00 0.00 0.00 73 1009.4
20260508050836 38 239 0.0 1.7 0.00 0.00 0.00 73 1009.3
20260508050739 38 239 0.0 2.6 0.00 0.00 0.00 74 1009.4
20260508050622 38 239 0.0 2.6 0.00 0.00 0.00 74 1009.3
20260508050510 38 239 0.0 2.6 0.00 0.00 0.00 75 1009.4
20260508050433 38 239 0.0 2.6 0.00 0.00 0.00 75 1009.4
20260508050309 38 239 0.9 2.6 0.00 0.00 0.00 74 1009.4
20260508050234 38 239 0.9 2.6 0.00 0.00 0.00 75 1009.5
20260508050117 38 240 0.9 2.6 0.00 0.00 0.00 75 1009.4
20260508050015 38 240 0.9 2.6 0.00 0.00 0.00 75 1009.5
20260508045919 37 240 0.9 2.6 0.00 0.00 0.00 75 1009.5
20260508045808 37 239 0.9 1.7 0.00 0.00 0.00 75 1009.5
20260508045713 37 239 0.9 1.7 0.00 0.00 0.00 76 1009.5
20260508045617 37 239 0.9 1.7 0.00 0.00 0.00 76 1009.5
20260508045521 37 239 0.9 1.7 0.00 0.00 0.00 76 1009.5
20260508045406 37 239 0.9 1.7 0.00 0.00 0.00 76 1009.5
20260508045311 37 239 0.9 1.7 0.00 0.00 0.00 76 1009.5
20260508045219 37 239 0.9 1.7 0.00 0.00 0.00 77 1009.6
20260508045122 37 239 0.9 1.7 0.00 0.00 0.00 77 1009.5
20260508045046 37 239 0.9 1.7 0.00 0.00 0.00 77 1009.5
20260508044929 37 239 0.9 1.7 0.00 0.00 0.00 78 1009.5
20260508044806 37 239 0.9 1.7 0.00 0.00 0.00 80 1009.5
20260508044731 37 239 0.9 1.7 0.00 0.00 0.00 80 1009.5
20260508044613 37 239 0.9 2.6 0.00 0.00 0.00 80 1009.5
20260508044542 37 239 0.9 2.6 0.00 0.00 0.00 80 1009.5
20260508044424 37 239 0.9 2.6 0.00 0.00 0.00 80 1009.5
20260508044308 37 239 0.9 2.6 0.00 0.00 0.00 80 1009.5
20260508044231 37 239 0.9 2.6 0.00 0.00 0.00 80 1009.6
20260508044109 37 239 0.9 2.6 0.00 0.00 0.00 80 1009.6
20260508044013 37 239 0.9 2.6 0.00 0.00 0.00 80 1009.6
20260508043937 37 239 0.9 2.6 0.00 0.00 0.00 80 1009.6
20260508043825 37 239 0.9 2.6 0.00 0.00 0.00 80 1009.6
20260508043729 38 240 0.9 2.6 0.00 0.00 0.00 80 1009.5
20260508043613 37 239 0.9 2.6 0.00 0.00 0.00 80 1009.6
20260508043518 37 239 1.7 2.6 0.00 0.00 0.00 80 1009.6
20260508043423 37 239 1.7 2.6 0.00 0.00 0.00 80 1009.7
20260508043347 37 56 0.9 1.7 0.00 0.00 0.00 80 1009.6
20260508043229 37 56 0.9 1.7 0.00 0.00 0.00 79 1009.7
20260508043117 37 56 0.9 1.7 0.00 0.00 0.00 79 1009.7
20260508043022 37 56 0.9 1.7 0.00 0.00 0.00 79 1009.7
20260508042946 37 56 0.9 1.7 0.00 0.00 0.00 79 1009.7
20260508042830 37 56 0.9 1.7 0.00 0.00 0.00 78 1009.8
20260508042732 37 57 0.9 1.7 0.00 0.00 0.00 78 1009.8
20260508042609 37 56 0.9 1.7 0.00 0.00 0.00 77 1009.8
20260508042513 37 57 0.9 1.7 0.00 0.00 0.00 76 1009.8
20260508042423 37 57 0.9 1.7 0.00 0.00 0.00 76 1009.9
20260508042308 37 57 0.9 1.7 0.00 0.00 0.00 74 1009.8
20260508042214 37 56 0.9 1.7 0.00 0.00 0.00 74 1009.9
20260508042140 37 56 0.9 1.7 0.00 0.00 0.00 73 1009.9
20260508042024 37 57 0.9 1.7 0.00 0.00 0.00 73 1009.9
20260508041910 37 57 0.9 1.7 0.00 0.00 0.00 73 1009.9
20260508041819 37 56 0.9 0.9 0.00 0.00 0.00 73 1009.9
20260508041725 37 56 0.0 0.9 0.00 0.00 0.00 73 1009.9
20260508041611 37 56 0.0 0.9 0.00 0.00 0.00 73 1009.9
20260508041516 37 57 0.0 0.9 0.00 0.00 0.00 73 1009.9
20260508041421 37 57 0.0 0.9 0.00 0.00 0.00 74 1009.9
20260508041311 38 57 0.0 0.9 0.00 0.00 0.00 74 1009.9
20260508041217 38 57 0.0 0.9 0.00 0.00 0.00 73 1009.9
20260508041121 38 56 0.0 0.9 0.00 0.00 0.00 73 1009.9
20260508041025 38 56 0.0 0.9 0.00 0.00 0.00 73 1009.9
20260508040910 38 56 0.0 0.9 0.00 0.00 0.00 73 1009.9
20260508040834 38 56 0.0 0.9 0.00 0.00 0.00 72 1009.9
20260508040718 38 57 0.0 0.9 0.00 0.00 0.00 72 1009.9
20260508040607 38 57 0.0 0.9 0.00 0.00 0.00 72 1009.9
20260508040511 38 57 0.0 0.9 0.00 0.00 0.00 72 1009.9
20260508040416 38 57 0.0 0.9 0.00 0.00 0.00 72 1010.0
20260508040320 38 57 0.0 0.9 0.00 0.00 0.00 72 1010.0
20260508040225 38 57 0.0 0.9 0.00 0.00 0.00 72 1009.9
20260508040114 38 57 0.0 0.9 0.00 0.00 0.00 72 1010.0
20260508040018 38 57 0.0 0.9 0.00 0.00 0.00 72 1010.0
20260508035942 38 57 0.0 0.0 0.00 0.00 0.00 72 1010.0
20260508035806 39 57 0.0 0.0 0.00 0.00 0.00 72 1010.0
20260508035711 39 57 0.0 0.0 0.00 0.00 0.00 72 1010.0
20260508035615 39 57 0.0 0.0 0.00 0.00 0.00 72 1010.0
20260508035519 39 57 0.0 0.0 0.00 0.00 0.00 72 1010.0
20260508035408 39 57 0.0 0.0 0.00 0.00 0.00 72 1010.0
20260508035312 39 57 0.0 0.0 0.00 0.00 0.00 73 1010.0
20260508035216 39 57 0.0 0.0 0.00 0.00 0.00 73 1010.0
20260508035120 39 57 0.0 0.9 0.00 0.00 0.00 73 1010.1
20260508035025 39 57 0.0 0.9 0.00 0.00 0.00 73 1010.1
20260508034913 39 57 0.0 0.9 0.00 0.00 0.00 73 1010.0
20260508034818 39 57 0.0 0.9 0.00 0.00 0.00 72 1010.1
20260508034743 39 57 0.0 0.9 0.00 0.00 0.00 72 1010.1
20260508034608 39 57 0.0 0.9 0.00 0.00 0.00 72 1010.1
20260508034532 39 57 0.0 0.9 0.00 0.00 0.00 72 1010.2
20260508034408 39 57 0.0 0.9 0.00 0.00 0.00 72 1010.1
20260508034331 39 57 0.9 0.9 0.00 0.00 0.00 71 1010.1
20260508034236 39 57 0.9 0.9 0.00 0.00 0.00 70 1010.1
20260508034144 39 56 0.9 0.9 0.00 0.00 0.00 70 1010.2
20260508034009 40 56 0.9 0.9 0.00 0.00 0.00 69 1010.1
20260508033913 40 56 0.0 0.9 0.00 0.00 0.00 69 1010.2
20260508033817 40 56 0.0 0.0 0.00 0.00 0.00 69 1010.2
20260508033741 40 56 0.0 0.0 0.00 0.00 0.00 69 1010.2
20260508033622 40 56 0.0 0.0 0.00 0.00 0.00 70 1010.2
20260508033511 40 56 0.0 0.0 0.00 0.00 0.00 71 1010.2
20260508033415 40 56 0.0 0.0 0.00 0.00 0.00 72 1010.3
20260508033319 40 56 0.0 0.0 0.00 0.00 0.00 73 1010.2
20260508033223 40 57 0.0 0.0 0.00 0.00 0.00 73 1010.1
20260508033127 40 56 0.0 0.9 0.00 0.00 0.00 74 1010.2
20260508033030 41 56 0.0 0.9 0.00 0.00 0.00 74 1010.2
20260508032912 41 56 0.0 0.9 0.00 0.00 0.00 74 1010.2
20260508032837 41 56 0.0 0.9 0.00 0.00 0.00 74 1010.2
20260508032724 41 56 0.0 0.9 0.00 0.00 0.00 74 1010.2
20260508032628 41 56 0.0 0.9 0.00 0.00 0.00 73 1010.2
20260508032551 41 56 0.0 0.9 0.00 0.00 0.00 73 1010.2
20260508032406 41 56 0.0 0.9 0.00 0.00 0.00 72 1010.2
20260508032330 41 56 0.0 0.9 0.00 0.00 0.00 73 1010.1
20260508032207 41 57 0.9 0.9 0.00 0.00 0.00 73 1010.1
20260508032115 41 56 0.9 0.9 0.00 0.00 0.00 73 1010.2
20260508032019 41 56 0.9 0.9 0.00 0.00 0.00 72 1010.2
20260508031923 41 57 0.9 0.9 0.00 0.00 0.00 72 1010.2
20260508031807 41 57 0.9 0.9 0.00 0.00 0.00 72 1010.2
20260508031711 41 56 0.0 0.9 0.00 0.00 0.00 70 1010.2
20260508031614 41 56 0.0 0.0 0.00 0.00 0.00 69 1010.2
20260508031521 41 56 0.0 0.0 0.00 0.00 0.00 68 1010.2
20260508031424 41 56 0.0 0.0 0.00 0.00 0.00 68 1010.2
20260508031309 41 56 0.0 0.0 0.00 0.00 0.00 67 1010.2
20260508031213 41 57 0.0 0.0 0.00 0.00 0.00 67 1010.2
20260508031116 41 56 0.0 0.0 0.00 0.00 0.00 66 1010.2
20260508031020 41 57 0.0 0.0 0.00 0.00 0.00 66 1010.2
20260508030908 42 56 0.0 0.0 0.00 0.00 0.00 66 1010.2
20260508030831 42 57 0.0 0.0 0.00 0.00 0.00 65 1010.2
20260508030709 42 56 0.0 0.0 0.00 0.00 0.00 64 1010.2
20260508030612 42 56 0.0 0.0 0.00 0.00 0.00 64 1010.2
20260508030518 42 56 0.0 0.0 0.00 0.00 0.00 64 1010.2
20260508030424 42 56 0.0 0.0 0.00 0.00 0.00 64 1010.3
20260508030312 42 57 0.0 0.0 0.00 0.00 0.00 64 1010.3
20260508030216 42 56 0.0 0.0 0.00 0.00 0.00 65 1010.2
20260508030121 42 56 0.0 0.0 0.00 0.00 0.00 66 1010.3
20260508030006 42 57 0.0 0.0 0.00 0.00 0.00 67 1010.2
20260508025930 43 56 0.0 0.0 0.00 0.00 0.00 67 1010.2
20260508025806 43 56 0.0 0.0 0.00 0.00 0.00 67 1010.2
20260508025715 43 57 0.0 0.0 0.00 0.00 0.00 65 1010.3
20260508025618 43 56 0.0 0.0 0.00 0.00 0.00 62 1010.3
20260508025542 43 56 0.0 0.0 0.00 0.00 0.00 62 1010.2
20260508025425 43 56 0.0 0.0 0.00 0.00 0.00 62 1010.2
20260508025310 43 56 0.0 0.0 0.00 0.00 0.00 62 1010.2
20260508025233 43 56 0.0 0.0 0.00 0.00 0.00 62 1010.3
20260508025116 43 57 0.0 0.0 0.00 0.00 0.00 62 1010.2
20260508025024 43 56 0.0 0.0 0.00 0.00 0.00 63 1010.2
20260508024929 43 56 0.0 0.0 0.00 0.00 0.00 63 1010.2
20260508024807 43 56 0.0 0.0 0.00 0.00 0.00 63 1010.2
20260508024711 44 56 0.0 0.0 0.00 0.00 0.00 63 1010.2
20260508024636 44 56 0.0 0.0 0.00 0.00 0.00 63 1010.3
20260508024518 44 57 0.0 0.0 0.00 0.00 0.00 62 1010.2
20260508024442 44 56 0.0 0.0 0.00 0.00 0.00 62 1010.2
20260508024308 44 57 0.0 0.9 0.00 0.00 0.00 61 1010.3
20260508024234 44 57 0.0 0.9 0.00 0.00 0.00 60 1010.2
20260508024118 44 56 0.0 0.9 0.00 0.00 0.00 60 1010.1
20260508024022 44 57 0.0 0.9 0.00 0.00 0.00 60 1010.2
20260508023926 44 57 0.0 0.9 0.00 0.00 0.00 60 1010.1
20260508023810 44 57 0.0 0.9 0.00 0.00 0.00 60 1010.2
20260508023734 44 56 0.0 1.7 0.00 0.00 0.00 59 1010.1
20260508023622 44 57 0.0 1.7 0.00 0.00 0.00 59 1010.1
20260508023507 44 57 0.0 1.7 0.00 0.00 0.00 59 1010.1
20260508023413 45 57 0.9 1.7 0.00 0.00 0.00 59 1010.1
20260508023318 45 57 0.9 1.7 0.00 0.00 0.00 58 1010.1
20260508023222 45 57 0.9 1.7 0.00 0.00 0.00 58 1010.1
20260508023110 45 57 0.9 1.7 0.00 0.00 0.00 58 1010.1
20260508023014 45 57 0.9 1.7 0.00 0.00 0.00 58 1010.1
20260508022919 45 57 0.9 1.7 0.00 0.00 0.00 58 1010.1
20260508022844 45 57 1.7 1.7 0.00 0.00 0.00 58 1010.1
20260508022727 45 57 0.9 1.7 0.00 0.00 0.00 58 1010.1
20260508022652 45 57 0.9 1.7 0.00 0.00 0.00 58 1010.0
20260508022508 46 57 0.9 1.7 0.00 0.00 0.00 59 1010.1
20260508022417 46 57 0.9 1.7 0.00 0.00 0.00 58 1010.1
20260508022342 46 57 0.9 1.7 0.00 0.00 0.00 57 1010.2
20260508022206 46 57 0.9 1.7 0.00 0.00 0.00 56 1010.1
20260508022129 46 57 0.9 1.7 0.00 0.00 0.00 56 1010.1
20260508022033 46 57 0.9 0.9 0.00 0.00 0.00 55 1010.1
20260508021916 46 57 0.0 0.9 0.00 0.00 0.00 54 1010.0
20260508021820 46 57 0.0 0.9 0.00 0.00 0.00 54 1010.1
20260508021709 46 57 0.0 0.9 0.00 0.00 0.00 54 1010.1
20260508021613 46 57 0.0 0.9 0.00 0.00 0.00 54 1010.1
20260508021517 47 57 0.0 0.9 0.00 0.00 0.00 55 1010.1
20260508021440 47 57 0.0 0.9 0.00 0.00 0.00 53 1010.0
20260508021325 47 57 0.0 1.7 0.00 0.00 0.00 53 1010.0
20260508021228 47 57 0.0 2.6 0.00 0.00 0.00 53 1010.0
20260508021110 47 57 0.0 2.6 0.00 0.00 0.00 53 1010.1
20260508021019 47 57 0.0 2.6 0.00 0.00 0.00 54 1010.0
20260508020923 47 57 0.0 3.5 0.00 0.00 0.00 54 1010.0
20260508020807 47 57 0.0 4.3 0.00 0.00 0.00 53 1010.0
20260508020732 47 57 0.0 4.3 0.00 0.00 0.00 54 1010.0
20260508020607 48 57 0.9 4.3 0.00 0.00 0.00 55 1010.0
20260508020512 48 57 1.7 4.3 0.00 0.00 0.00 52 1010.0
20260508020421 48 57 1.7 4.3 0.00 0.00 0.00 52 1010.0
20260508020305 48 57 2.6 4.3 0.00 0.00 0.00 53 1010.0
20260508020230 48 57 2.6 4.3 0.00 0.00 0.00 53 1010.0
20260508020106 48 56 1.7 4.3 0.00 0.00 0.00 51 1009.9
20260508020010 48 55 0.0 3.5 0.00 0.00 0.00 49 1010.0
20260508015914 49 292 0.0 1.7 0.00 0.00 0.00 50 1010.0
20260508015819 49 292 0.9 1.7 0.00 0.00 0.00 49 1009.9
20260508015709 49 292 0.9 1.7 0.00 0.00 0.00 49 1010.0
20260508015632 49 292 0.9 1.7 0.00 0.00 0.00 50 1009.9
20260508015516 49 292 0.9 1.7 0.00 0.00 0.00 48 1009.9
20260508015420 49 292 0.9 1.7 0.00 0.00 0.00 51 1009.9
20260508015306 49 292 0.9 1.7 0.00 0.00 0.00 45 1009.9
20260508015209 50 292 0.9 1.7 0.00 0.00 0.00 45 1009.9
20260508015117 50 292 0.9 1.7 0.00 0.00 0.00 45 1009.9
20260508015020 50 292 0.9 1.7 0.00 0.00 0.00 45 1009.9
20260508014906 50 292 0.9 1.7 0.00 0.00 0.00 45 1009.9
20260508014810 50 292 0.9 1.7 0.00 0.00 0.00 45 1009.9
20260508014716 50 292 0.9 1.7 0.00 0.00 0.00 45 1009.8
20260508014639 50 292 0.9 1.7 0.00 0.00 0.00 46 1009.8
20260508014506 50 292 0.9 1.7 0.00 0.00 0.00 45 1009.8
20260508014431 51 292 0.9 1.7 0.00 0.00 0.00 45 1009.8
20260508014314 51 292 0.9 1.7 0.00 0.00 0.00 44 1009.8
20260508014219 51 292 0.9 1.7 0.00 0.00 0.00 43 1009.8
20260508014121 51 292 0.9 1.7 0.00 0.00 0.00 44 1009.7
20260508014025 51 292 0.9 1.7 0.00 0.00 0.00 45 1009.8
20260508013929 51 292 0.9 1.7 0.00 0.00 0.00 44 1009.8
20260508013816 51 292 0.9 1.7 0.00 0.00 0.00 44 1009.8
20260508013720 51 292 0.9 1.7 0.00 0.00 0.00 44 1009.8
20260508013625 51 292 0.9 1.7 0.00 0.00 0.00 44 1009.8
20260508013529 51 292 0.9 1.7 0.00 0.00 0.00 44 1009.8
20260508013413 52 292 0.9 1.7 0.00 0.00 0.00 43 1009.7
20260508013337 52 292 0.9 1.7 0.00 0.00 0.00 43 1009.7
20260508013241 52 292 0.9 3.5 0.00 0.00 0.00 43 1009.7
20260508013107 52 292 0.9 3.5 0.00 0.00 0.00 43 1009.7
20260508013011 52 292 0.9 3.5 0.00 0.00 0.00 43 1009.7
20260508012916 52 292 0.9 3.5 0.00 0.00 0.00 44 1009.6
20260508012821 52 293 0.9 3.5 0.00 0.00 0.00 44 1009.7
20260508012724 52 293 0.9 3.5 0.00 0.00 0.00 44 1009.7
20260508012610 53 293 1.7 3.5 0.00 0.00 0.00 44 1009.6
20260508012517 53 293 1.7 3.5 0.00 0.00 0.00 44 1009.7
20260508012422 53 286 1.7 3.5 0.00 0.00 0.00 43 1009.7
20260508012308 53 330 1.7 3.5 0.00 0.00 0.00 42 1009.6
20260508012210 53 331 1.7 6.1 0.00 0.00 0.00 43 1009.7
20260508012115 53 331 1.7 6.1 0.00 0.00 0.00 44 1009.6
20260508012039 53 286 1.7 6.1 0.00 0.00 0.00 45 1009.7
20260508011927 53 296 1.7 6.1 0.00 0.00 0.00 46 1009.7
20260508011851 53 296 1.7 6.1 0.00 0.00 0.00 46 1009.6
20260508011705 53 296 2.6 6.1 0.00 0.00 0.00 43 1009.6
20260508011610 53 296 2.6 7.0 0.00 0.00 0.00 43 1009.6
20260508011514 54 309 2.6 7.0 0.00 0.00 0.00 43 1009.6
20260508011418 54 284 3.5 7.0 0.00 0.00 0.00 43 1009.7
20260508011343 54 286 3.5 7.0 0.00 0.00 0.00 43 1009.6
20260508011231 54 306 3.5 7.0 0.00 0.00 0.00 41 1009.5
20260508011108 54 303 3.5 7.0 0.00 0.00 0.00 42 1009.6
20260508011011 54 317 3.5 7.0 0.00 0.00 0.00 40 1009.6
20260508010915 54 298 3.5 7.0 0.00 0.00 0.00 41 1009.6
20260508010819 54 323 3.5 7.0 0.00 0.00 0.00 40 1009.6
20260508010743 54 300 4.3 7.0 0.00 0.00 0.00 41 1009.5
20260508010610 54 298 4.3 7.0 0.00 0.00 0.00 42 1009.5
20260508010534 54 296 3.5 7.0 0.00 0.00 0.00 42 1009.6
20260508010417 54 304 2.6 7.0 0.00 0.00 0.00 41 1009.6
20260508010321 54 280 2.6 7.0 0.00 0.00 0.00 41 1009.6
20260508010206 55 283 3.5 7.0 0.00 0.00 0.00 40 1009.6
20260508010110 55 294 3.5 7.0 0.00 0.00 0.00 39 1009.5
20260508010013 55 310 2.6 7.0 0.00 0.00 0.00 40 1009.6
20260508005920 55 293 2.6 7.0 0.00 0.00 0.00 40 1009.5
20260508005805 55 302 3.5 7.0 0.00 0.00 0.00 39 1009.5
20260508005710 55 296 5.2 7.0 0.00 0.00 0.00 38 1009.5
20260508005616 55 286 5.2 7.0 0.00 0.00 0.00 38 1009.6
20260508005520 55 296 4.3 7.0 0.00 0.00 0.00 39 1009.5
20260508005408 56 306 3.5 8.7 0.00 0.00 0.00 39 1009.5
20260508005311 56 300 3.5 8.7 0.00 0.00 0.00 38 1009.5
20260508005215 56 293 3.5 8.7 0.00 0.00 0.00 37 1009.5
20260508005139 56 299 3.5 8.7 0.00 0.00 0.00 38 1009.5
20260508005023 56 348 4.3 8.7 0.00 0.00 0.00 36 1009.5
20260508004908 56 319 3.5 10.4 0.00 0.00 0.00 37 1009.5
20260508004813 56 311 4.3 10.4 0.00 0.00 0.00 38 1009.5
20260508004722 56 311 5.2 10.4 0.00 0.00 0.00 37 1009.5
20260508004606 56 302 4.3 11.3 0.00 0.00 0.00 37 1009.5
20260508004511 56 335 4.3 11.3 0.00 0.00 0.00 36 1009.4
20260508004435 56 301 4.3 11.3 0.00 0.00 0.00 36 1009.4
20260508004318 56 310 3.5 11.3 0.00 0.00 0.00 36 1009.5
20260508004223 56 313 4.3 11.3 0.00 0.00 0.00 37 1009.5
20260508004132 56 317 6.1 11.3 0.00 0.00 0.00 35 1009.4
20260508004007 56 5 7.0 11.3 0.00 0.00 0.00 36 1009.4
20260508003911 56 323 7.0 11.3 0.00 0.00 0.00 35 1009.5
20260508003836 56 327 5.2 11.3 0.00 0.00 0.00 36 1009.5
20260508003719 56 355 6.1 11.3 0.00 0.00 0.00 37 1009.5
20260508003624 56 350 6.1 9.6 0.00 0.00 0.00 37 1009.5
20260508003529 56 298 4.3 8.7 0.00 0.00 0.00 37 1009.6
20260508003417 56 323 4.3 8.7 0.00 0.00 0.00 36 1009.6
20260508003321 56 312 4.3 8.7 0.00 0.00 0.00 37 1009.6
20260508003245 56 10 3.5 8.7 0.00 0.00 0.00 37 1009.6
20260508003128 56 350 2.6 8.7 0.00 0.00 0.00 37 1009.6
20260508003006 56 304 3.5 8.7 0.00 0.00 0.00 37 1009.6
20260508002910 56 326 3.5 8.7 0.00 0.00 0.00 36 1009.6
20260508002813 56 296 3.5 8.7 0.00 0.00 0.00 36 1009.5
20260508002720 56 298 5.2 8.7 0.00 0.00 0.00 35 1009.5
20260508002606 56 316 7.0 8.7 0.00 0.00 0.00 36 1009.5
20260508002509 56 302 6.1 8.7 0.00 0.00 0.00 35 1009.5
20260508002414 56 318 5.2 8.7 0.00 0.00 0.00 36 1009.5
20260508002317 56 320 5.2 8.7 0.00 0.00 0.00 37 1009.5
20260508002220 56 287 4.3 8.7 0.00 0.00 0.00 36 1009.5
20260508002129 56 291 3.5 8.7 0.00 0.00 0.00 36 1009.6
20260508002006 56 321 3.5 7.0 0.00 0.00 0.00 36 1009.6
20260508001909 56 300 2.6 7.0 0.00 0.00 0.00 36 1009.5
20260508001811 56 302 2.6 7.0 0.00 0.00 0.00 36 1009.6
20260508001714 56 346 2.6 7.0 0.00 0.00 0.00 38 1009.5
20260508001618 56 328 2.6 8.7 0.00 0.00 0.00 36 1009.5
20260508001525 56 306 3.5 8.7 0.00 0.00 0.00 36 1009.6
20260508001409 56 315 3.5 8.7 0.00 0.00 0.00 34 1009.6
20260508001312 56 5 2.6 8.7 0.00 0.00 0.00 35 1009.6
20260508001214 56 355 2.6 8.7 0.00 0.00 0.00 36 1009.6
20260508001118 56 360 3.5 9.6 0.00 0.00 0.00 35 1009.6
20260508001039 56 329 4.3 9.6 0.00 0.00 0.00 35 1009.6
20260508000927 56 346 4.3 9.6 0.00 0.00 0.00 35 1009.6
20260508000829 56 315 4.3 9.6 0.00 0.00 0.00 35 1009.6
20260508000752 56 355 5.2 9.6 0.00 0.00 0.00 34 1009.6
20260508000607 56 350 5.2 9.6 0.00 0.00 0.00 35 1009.7
20260508000511 56 5 6.1 9.6 0.00 0.00 0.00 35 1009.7
20260508000413 56 315 5.2 10.4 0.00 0.00 0.00 36 1009.6
20260508000317 56 347 4.3 10.4 0.00 0.00 0.00 35 1009.7
20260508000242 57 331 4.3 10.4 0.00 0.00 0.00 35 1009.6
20260508000106 57 316 5.2 10.4 0.00 0.00 0.00 35 1009.5
20260508000030 57 333 6.1 13.9 0.00 0.00 0.00 35 1009.6
20260507235913 57 312 6.1 13.9 0.00 0.00 0.00 35 1009.6
20260507235835 57 328 5.2 13.9 0.00 0.00 0.00 34 1009.6
20260507235717 57 324 6.1 13.9 0.00 0.00 0.00 35 1009.7
20260507235620 57 346 7.0 13.9 0.00 0.00 0.00 34 1009.7
20260507235507 57 333 7.0 13.9 0.00 0.00 0.00 35 1009.7
20260507235410 57 284 7.0 14.8 0.00 0.00 0.00 35 1009.7
20260507235313 57 338 8.7 14.8 0.00 0.00 0.00 34 1009.7
20260507235216 57 302 9.6 14.8 0.00 0.00 0.00 34 1009.6
20260507235120 57 312 9.6 14.8 0.00 0.00 0.00 34 1009.6
20260507235023 57 313 7.8 14.8 0.00 0.00 0.00 35 1009.6
20260507234909 57 319 7.8 14.8 0.00 0.00 0.00 35 1009.5
20260507234831 57 277 8.7 14.8 0.00 0.00 0.00 35 1009.6
20260507234707 57 300 8.7 14.8 0.00 0.00 0.00 35 1009.6
20260507234631 57 300 8.7 14.8 0.00 0.00 0.00 35 1009.7
20260507234513 57 338 7.0 14.8 0.00 0.00 0.00 33 1009.8
20260507234413 57 355 7.0 14.8 0.00 0.00 0.00 35 1009.7
20260507234315 57 317 6.1 14.8 0.00 0.00 0.00 34 1009.7
20260507234223 57 336 5.2 12.2 0.00 0.00 0.00 33 1009.7
20260507234107 57 307 3.5 7.8 0.00 0.00 0.00 36 1009.7
20260507234009 57 317 2.6 10.4 0.00 0.00 0.00 36 1009.8
20260507233912 57 292 4.3 10.4 0.00 0.00 0.00 35 1009.8
20260507233836 57 319 4.3 10.4 0.00 0.00 0.00 34 1009.8
20260507233718 57 318 5.2 10.4 0.00 0.00 0.00 33 1009.9
20260507233606 57 18 4.3 10.4 0.00 0.00 0.00 34 1009.9
20260507233508 57 355 3.5 10.4 0.00 0.00 0.00 35 1009.8
20260507233431 57 331 2.6 10.4 0.00 0.00 0.00 36 1009.8
20260507233307 57 355 5.2 11.3 0.00 0.00 0.00 34 1009.8
20260507233210 57 360 7.0 11.3 0.00 0.00 0.00 33 1009.8
20260507233133 57 30 6.1 11.3 0.00 0.00 0.00 33 1009.8
20260507233036 58 5 6.1 11.3 0.00 0.00 0.00 33 1009.9
20260507232919 58 355 5.2 11.3 0.00 0.00 0.00 32 1009.7
20260507232826 58 29 5.2 11.3 0.00 0.00 0.00 35 1009.8
20260507232708 58 306 6.1 11.3 0.00 0.00 0.00 33 1009.8
20260507232632 58 42 6.1 11.3 0.00 0.00 0.00 32 1009.9
20260507232507 58 355 6.1 11.3 0.00 0.00 0.00 34 1009.9
20260507232431 58 360 6.1 9.6 0.00 0.00 0.00 34 1009.9
20260507232308 58 340 5.2 13.0 0.00 0.00 0.00 34 1009.9
20260507232215 58 310 6.1 13.0 0.00 0.00 0.00 33 1009.9
20260507232139 58 302 3.5 13.0 0.00 0.00 0.00 33 1009.9
20260507232021 58 345 2.6 13.0 0.00 0.00 0.00 34 1009.9
20260507231926 58 13 2.6 13.0 0.00 0.00 0.00 35 1010.0
20260507231830 58 334 2.6 13.0 0.00 0.00 0.00 35 1010.0
20260507231713 58 296 2.6 13.0 0.00 0.00 0.00 33 1010.0
20260507231617 58 311 5.2 13.0 0.00 0.00 0.00 33 1009.9
20260507231521 58 333 7.8 13.0 0.00 0.00 0.00 33 1010.0
20260507231407 58 306 8.7 13.0 0.00 0.00 0.00 34 1009.9
20260507231310 58 331 7.8 12.2 0.00 0.00 0.00 34 1010.0
20260507231235 58 294 7.0 13.0 0.00 0.00 0.00 33 1009.9
20260507231119 58 323 7.8 13.0 0.00 0.00 0.00 33 1009.9
20260507231043 58 331 7.0 13.0 0.00 0.00 0.00 33 1009.9
20260507230907 58 350 7.0 13.0 0.00 0.00 0.00 34 1009.9
20260507230816 58 321 6.1 13.0 0.00 0.00 0.00 34 1010.1
20260507230719 58 317 4.3 13.0 0.00 0.00 0.00 35 1009.9
20260507230624 58 301 6.1 13.0 0.00 0.00 0.00 36 1010.0
20260507230529 58 294 7.8 13.0 0.00 0.00 0.00 34 1010.0
20260507230405 58 293 8.7 13.0 0.00 0.00 0.00 34 1010.0
20260507230308 58 324 8.7 13.0 0.00 0.00 0.00 36 1010.0
20260507230216 58 306 8.7 13.0 0.00 0.00 0.00 34 1009.9
20260507230121 57 320 8.7 13.0 0.00 0.00 0.00 34 1010.0
20260507230006 58 305 8.7 13.0 0.00 0.00 0.00 35 1010.0
20260507225909 58 272 9.6 13.0 0.00 0.00 0.00 33 1009.9
20260507225814 58 327 9.6 12.2 0.00 0.00 0.00 35 1010.0
20260507225718 58 293 8.7 12.2 0.00 0.00 0.00 35 1009.9
20260507225626 58 290 7.8 11.3 0.00 0.00 0.00 35 1009.9
20260507225528 58 288 7.8 11.3 0.00 0.00 0.00 35 1010.1
20260507225406 58 306 7.0 11.3 0.00 0.00 0.00 34 1010.0
20260507225310 58 304 7.8 11.3 0.00 0.00 0.00 35 1010.0
20260507225235 58 279 8.7 11.3 0.00 0.00 0.00 35 1010.1
20260507225119 58 304 7.0 11.3 0.00 0.00 0.00 32 1010.0
20260507225024 58 296 7.0 11.3 0.00 0.00 0.00 34 1010.1
20260507224930 58 342 7.8 11.3 0.00 0.00 0.00 33 1010.1
20260507224813 58 316 7.0 10.4 0.00 0.00 0.00 32 1010.2
20260507224738 58 346 6.1 10.4 0.00 0.00 0.00 32 1010.1
20260507224620 58 24 6.1 10.4 0.00 0.00 0.00 33 1010.3
20260507224524 58 302 6.1 10.4 0.00 0.00 0.00 32 1010.2
20260507224409 58 360 6.1 11.3 0.00 0.00 0.00 34 1010.2
20260507224312 58 355 5.2 13.9 0.00 0.00 0.00 35 1010.2
20260507224240 58 288 5.2 13.9 0.00 0.00 0.00 37 1010.2
20260507224143 58 323 6.1 13.9 0.00 0.00 0.00 36 1010.3
20260507224026 58 286 7.0 14.8 0.00 0.00 0.00 35 1010.2
20260507223930 57 309 7.0 14.8 0.00 0.00 0.00 33 1010.2
20260507223814 57 355 7.0 17.4 0.00 0.00 0.00 34 1010.2
20260507223737 57 300 8.7 17.4 0.00 0.00 0.00 33 1010.2
20260507223620 57 289 10.4 17.4 0.00 0.00 0.00 35 1010.1
20260507223544 57 311 9.6 17.4 0.00 0.00 0.00 36 1010.2
20260507223430 57 287 9.6 17.4 0.00 0.00 0.00 36 1010.2
20260507223332 57 272 10.4 17.4 0.00 0.00 0.00 34 1010.2
20260507223210 57 292 12.2 17.4 0.00 0.00 0.00 35 1010.3
20260507223114 57 298 13.0 17.4 0.00 0.00 0.00 35 1010.2
20260507223019 57 291 13.0 17.4 0.00 0.00 0.00 34 1010.1
20260507222921 57 298 13.0 17.4 0.00 0.00 0.00 33 1010.1
20260507222810 57 304 13.9 17.4 0.00 0.00 0.00 33 1010.1
20260507222714 57 290 12.2 17.4 0.00 0.00 0.00 34 1010.1
20260507222619 58 287 10.4 15.6 0.00 0.00 0.00 33 1010.2
20260507222524 58 317 10.4 15.6 0.00 0.00 0.00 33 1010.2
20260507222429 58 296 11.3 15.6 0.00 0.00 0.00 32 1010.2
20260507222311 58 301 10.4 14.8 0.00 0.00 0.00 33 1010.2
20260507222236 58 308 7.8 13.9 0.00 0.00 0.00 33 1010.3
20260507222123 58 296 7.8 13.9 0.00 0.00 0.00 33 1010.3
20260507222028 58 322 7.0 13.9 0.00 0.00 0.00 33 1010.4
20260507221911 58 26 7.8 13.9 0.00 0.00 0.00 32 1010.4
20260507221815 58 355 7.8 13.9 0.00 0.00 0.00 34 1010.5
20260507221738 58 295 7.8 13.9 0.00 0.00 0.00 34 1010.4
20260507221621 58 288 8.7 13.9 0.00 0.00 0.00 34 1010.3
20260507221524 58 281 10.4 13.9 0.00 0.00 0.00 32 1010.3
20260507221413 58 275 9.6 13.9 0.00 0.00 0.00 34 1010.4
20260507221337 58 289 6.1 13.9 0.00 0.00 0.00 35 1010.4
20260507221240 58 321 4.3 10.4 0.00 0.00 0.00 34 1010.3
20260507221123 58 334 4.3 10.4 0.00 0.00 0.00 33 1010.4
20260507221027 58 39 3.5 13.0 0.00 0.00 0.00 34 1010.4
20260507220952 58 38 2.6 13.0 0.00 0.00 0.00 34 1010.4
20260507220807 58 75 6.1 13.0 0.00 0.00 0.00 30 1010.4
20260507220731 58 41 6.1 13.0 0.00 0.00 0.00 32 1010.5
20260507220618 58 15 5.2 13.0 0.00 0.00 0.00 32 1010.5
20260507220522 58 74 6.1 13.0 0.00 0.00 0.00 32 1010.5
20260507220407 58 9 7.8 13.0 0.00 0.00 0.00 32 1010.5
20260507220312 58 15 7.8 13.9 0.00 0.00 0.00 31 1010.6
20260507220215 58 360 7.8 17.4 0.00 0.00 0.00 32 1010.6
20260507220120 58 345 6.1 17.4 0.00 0.00 0.00 34 1010.6
20260507220027 58 360 5.2 17.4 0.00 0.00 0.00 37 1010.5
20260507215931 58 310 6.1 17.4 0.00 0.00 0.00 33 1010.5
20260507215807 58 328 9.6 17.4 0.00 0.00 0.00 32 1010.6
20260507215712 59 338 9.6 17.4 0.00 0.00 0.00 31 1010.6
20260507215616 59 324 10.4 17.4 0.00 0.00 0.00 32 1010.7
20260507215520 59 355 9.6 17.4 0.00 0.00 0.00 34 1010.7
20260507215407 59 347 9.6 14.8 0.00 0.00 0.00 33 1010.6
20260507215330 58 309 9.6 14.8 0.00 0.00 0.00 32 1010.6
20260507215254 58 342 9.6 14.8 0.00 0.00 0.00 33 1010.5
20260507215109 58 331 7.0 15.6 0.00 0.00 0.00 34 1010.7
20260507215013 58 13 4.3 15.6 0.00 0.00 0.00 35 1010.6
20260507214936 58 300 6.1 15.6 0.00 0.00 0.00 34 1010.5
20260507214820 58 292 7.8 15.6 0.00 0.00 0.00 33 1010.6
20260507214708 58 308 6.1 15.6 0.00 0.00 0.00 32 1010.5
20260507214613 58 344 6.1 15.6 0.00 0.00 0.00 34 1010.6
20260507214536 58 341 8.7 15.6 0.00 0.00 0.00 34 1010.6
20260507214420 58 328 10.4 15.6 0.00 0.00 0.00 37 1010.6
20260507214325 58 303 11.3 15.6 0.00 0.00 0.00 34 1010.6
20260507214211 58 288 10.4 15.6 0.00 0.00 0.00 34 1010.5
20260507214136 58 329 9.6 14.8 0.00 0.00 0.00 34 1010.6
20260507214025 58 316 8.7 12.2 0.00 0.00 0.00 36 1010.5
20260507213910 58 302 8.7 13.0 0.00 0.00 0.00 33 1010.5
20260507213815 58 312 6.1 13.0 0.00 0.00 0.00 34 1010.5
20260507213721 58 311 5.2 13.0 0.00 0.00 0.00 34 1010.5
20260507213607 58 270 3.5 13.0 0.00 0.00 0.00 34 1010.5
20260507213516 58 295 2.6 13.0 0.00 0.00 0.00 34 1010.6
20260507213421 58 284 4.3 13.0 0.00 0.00 0.00 33 1010.5
20260507213307 58 5 7.0 13.0 0.00 0.00 0.00 33 1010.5
20260507213211 58 19 7.8 13.0 0.00 0.00 0.00 31 1010.6
20260507213112 58 5 7.0 13.0 0.00 0.00 0.00 31 1010.6
20260507213033 58 15 7.8 13.0 0.00 0.00 0.00 31 1010.6
20260507212913 58 13 8.7 13.0 0.00 0.00 0.00 31 1010.6
20260507212818 58 360 8.7 13.0 0.00 0.00 0.00 32 1010.7
20260507212719 58 355 7.8 14.8 0.00 0.00 0.00 34 1010.6
20260507212643 58 350 7.0 14.8 0.00 0.00 0.00 34 1010.7
20260507212507 58 28 6.1 14.8 0.00 0.00 0.00 33 1010.6
20260507212411 58 350 7.8 14.8 0.00 0.00 0.00 34 1010.7
20260507212315 58 349 9.6 16.5 0.00 0.00 0.00 35 1010.8
20260507212222 58 305 9.6 16.5 0.00 0.00 0.00 33 1010.6
20260507212107 58 335 7.8 16.5 0.00 0.00 0.00 34 1010.6
20260507212009 58 328 8.7 16.5 0.00 0.00 0.00 33 1010.5
20260507211912 58 343 8.7 16.5 0.00 0.00 0.00 34 1010.5
20260507211815 58 307 6.1 16.5 0.00 0.00 0.00 34 1010.5
20260507211718 58 321 7.0 16.5 0.00 0.00 0.00 34 1010.5
20260507211605 58 313 6.1 16.5 0.00 0.00 0.00 35 1010.6
20260507211508 58 48 2.6 12.2 0.00 0.00 0.00 34 1010.5
20260507211431 58 284 2.6 12.2 0.00 0.00 0.00 37 1010.6
20260507211312 58 360 3.5 12.2 0.00 0.00 0.00 35 1010.6
20260507211236 57 19 5.2 12.2 0.00 0.00 0.00 35 1010.6
20260507211137 57 5 7.0 12.2 0.00 0.00 0.00 34 1010.6
20260507211021 57 12 7.0 12.2 0.00 0.00 0.00 34 1010.6
20260507210906 57 19 4.3 14.8 0.00 0.00 0.00 37 1010.6
20260507210829 57 293 5.2 14.8 0.00 0.00 0.00 36 1010.7
20260507210753 57 311 6.1 14.8 0.00 0.00 0.00 35 1010.7
20260507210633 57 276 7.0 14.8 0.00 0.00 0.00 33 1010.7
20260507210509 57 319 8.7 14.8 0.00 0.00 0.00 36 1010.7
20260507210411 57 289 7.0 14.8 0.00 0.00 0.00 36 1010.7
20260507210317 57 278 5.2 14.8 0.00 0.00 0.00 36 1010.7
20260507210220 57 302 6.1 14.8 0.00 0.00 0.00 36 1010.7
20260507210107 57 355 7.8 14.8 0.00 0.00 0.00 34 1010.8
20260507210009 56 340 7.8 13.9 0.00 0.00 0.00 36 1010.8
20260507205913 56 294 9.6 14.8 0.00 0.00 0.00 35 1010.8
20260507205818 56 288 8.7 14.8 0.00 0.00 0.00 35 1010.9
20260507205720 56 317 7.8 16.5 0.00 0.00 0.00 35 1010.8
20260507205608 57 312 8.7 16.5 0.00 0.00 0.00 34 1010.8
20260507205511 57 336 7.8 16.5 0.00 0.00 0.00 34 1010.7
20260507205414 57 304 7.8 16.5 0.00 0.00 0.00 38 1010.8
20260507205314 57 323 9.6 16.5 0.00 0.00 0.00 34 1010.7
20260507205217 57 319 11.3 16.5 0.00 0.00 0.00 32 1010.8
20260507205116 57 303 11.3 16.5 0.00 0.00 0.00 33 1010.8
20260507205040 57 324 10.4 16.5 0.00 0.00 0.00 34 1010.8
20260507204942 57 321 11.3 16.5 0.00 0.00 0.00 36 1010.9
20260507204827 57 327 11.3 16.5 0.00 0.00 0.00 37 1010.8
20260507204731 57 290 10.4 16.5 0.00 0.00 0.00 34 1010.7
20260507204607 57 323 12.2 16.5 0.00 0.00 0.00 34 1010.8
20260507204532 57 313 12.2 16.5 0.00 0.00 0.00 34 1010.7
20260507204434 57 320 11.3 16.5 0.00 0.00 0.00 34 1010.9
20260507204317 57 275 8.7 14.8 0.00 0.00 0.00 35 1010.7
20260507204220 57 311 5.2 12.2 0.00 0.00 0.00 34 1010.8
20260507204108 57 211 3.5 12.2 0.00 0.00 0.00 33 1010.9
20260507204011 57 325 5.2 12.2 0.00 0.00 0.00 34 1010.9
20260507203914 57 350 8.7 12.2 0.00 0.00 0.00 34 1010.9
20260507203817 57 299 7.8 12.2 0.00 0.00 0.00 36 1010.9
20260507203741 57 321 4.3 11.3 0.00 0.00 0.00 35 1010.9
20260507203622 57 15 3.5 11.3 0.00 0.00 0.00 35 1010.9
20260507203509 56 355 4.3 12.2 0.00 0.00 0.00 35 1011.0
20260507203433 56 12 5.2 12.2 0.00 0.00 0.00 35 1011.0
20260507203308 56 360 4.3 14.8 0.00 0.00 0.00 35 1011.0
20260507203211 56 360 4.3 14.8 0.00 0.00 0.00 35 1011.0
20260507203114 56 23 5.2 14.8 0.00 0.00 0.00 34 1011.0
20260507203018 56 342 6.1 14.8 0.00 0.00 0.00 36 1011.0
20260507202942 56 355 7.8 15.6 0.00 0.00 0.00 35 1011.1
20260507202843 56 325 8.7 15.6 0.00 0.00 0.00 33 1011.1
20260507202706 56 300 9.6 15.6 0.00 0.00 0.00 35 1011.0
20260507202609 56 317 8.7 15.6 0.00 0.00 0.00 35 1011.0
20260507202532 56 298 8.7 15.6 0.00 0.00 0.00 38 1011.0
20260507202409 56 320 9.6 15.6 0.00 0.00 0.00 35 1011.0
20260507202332 56 286 10.4 15.6 0.00 0.00 0.00 35 1011.0
20260507202208 57 301 9.6 15.6 0.00 0.00 0.00 40 1011.1
20260507202137 56 287 7.0 13.0 0.00 0.00 0.00 36 1011.0
20260507202020 56 343 5.2 13.0 0.00 0.00 0.00 36 1011.1
20260507201922 56 305 3.5 13.0 0.00 0.00 0.00 37 1011.1
20260507201845 56 346 3.5 13.0 0.00 0.00 0.00 34 1011.1
20260507201708 56 271 5.2 13.0 0.00 0.00 0.00 35 1011.1
20260507201612 56 279 5.2 13.0 0.00 0.00 0.00 35 1011.1
20260507201514 56 254 6.1 13.0 0.00 0.00 0.00 37 1011.1
20260507201443 56 233 9.6 13.0 0.00 0.00 0.00 33 1011.2
20260507201322 56 265 10.4 13.0 0.00 0.00 0.00 36 1011.2
20260507201225 56 279 8.7 13.0 0.00 0.00 0.00 35 1011.1
20260507201128 57 277 7.8 11.3 0.00 0.00 0.00 34 1011.2
20260507201052 57 271 7.0 11.3 0.00 0.00 0.00 36 1011.2
20260507200907 57 306 4.3 10.4 0.00 0.00 0.00 34 1011.3
20260507200810 56 282 3.5 10.4 0.00 0.00 0.00 39 1011.3
20260507200717 56 360 4.3 10.4 0.00 0.00 0.00 37 1011.3
20260507200619 56 316 6.1 10.4 0.00 0.00 0.00 36 1011.3
20260507200543 56 5 7.0 10.4 0.00 0.00 0.00 34 1011.3
20260507200425 56 10 5.2 10.4 0.00 0.00 0.00 35 1011.4
20260507200330 56 11 5.2 10.4 0.00 0.00 0.00 34 1011.3
20260507200253 56 49 5.2 10.4 0.00 0.00 0.00 35 1011.4
20260507200109 56 47 3.5 8.7 0.00 0.00 0.00 39 1011.4
20260507200017 56 355 3.5 8.7 0.00 0.00 0.00 33 1011.4
20260507195917 56 325 6.1 8.7 0.00 0.00 0.00 34 1011.3
20260507195842 56 321 7.0 8.7 0.00 0.00 0.00 35 1011.4
20260507195724 56 313 5.2 8.7 0.00 0.00 0.00 36 1011.4
20260507195608 56 5 3.5 10.4 0.00 0.00 0.00 35 1011.4
20260507195512 56 17 4.3 12.2 0.00 0.00 0.00 38 1011.4
20260507195420 56 346 4.3 12.2 0.00 0.00 0.00 37 1011.4
20260507195324 56 360 6.1 12.2 0.00 0.00 0.00 37 1011.5
20260507195229 56 288 6.1 12.2 0.00 0.00 0.00 37 1011.4
20260507195153 56 262 7.0 12.2 0.00 0.00 0.00 35 1011.4
20260507195009 56 295 5.2 12.2 0.00 0.00 0.00 37 1011.5
20260507194913 56 282 6.1 12.2 0.00 0.00 0.00 38 1011.4
20260507194817 56 332 7.8 12.2 0.00 0.00 0.00 36 1011.5
20260507194724 56 355 8.7 12.2 0.00 0.00 0.00 37 1011.7
20260507194608 56 300 7.0 12.2 0.00 0.00 0.00 35 1011.4
20260507194512 56 326 7.8 12.2 0.00 0.00 0.00 35 1011.6
20260507194437 56 326 8.7 12.2 0.00 0.00 0.00 35 1011.6
20260507194319 56 310 7.8 12.2 0.00 0.00 0.00 37 1011.5
20260507194222 55 305 6.1 12.2 0.00 0.00 0.00 39 1011.6
20260507194111 55 311 5.2 10.4 0.00 0.00 0.00 36 1011.5
20260507194034 55 350 5.2 10.4 0.00 0.00 0.00 37 1011.6
20260507193915 55 342 5.2 10.4 0.00 0.00 0.00 37 1011.6
20260507193819 55 5 3.5 10.4 0.00 0.00 0.00 35 1011.6
20260507193720 55 284 4.3 10.4 0.00 0.00 0.00 35 1011.4
20260507193622 55 79 6.1 10.4 0.00 0.00 0.00 39 1011.5
20260507193509 54 23 5.2 10.4 0.00 0.00 0.00 39 1011.7
20260507193413 54 13 3.5 10.4 0.00 0.00 0.00 37 1011.5
20260507193317 54 222 1.7 7.8 0.00 0.00 0.00 37 1011.6
20260507193221 54 244 0.9 7.8 0.00 0.00 0.00 39 1011.5
20260507193145 54 264 0.9 7.8 0.00 0.00 0.00 36 1011.5
20260507193046 54 264 1.7 8.7 0.00 0.00 0.00 37 1011.5
20260507192926 53 268 4.3 12.2 0.00 0.00 0.00 36 1011.6
20260507192811 53 292 6.1 12.2 0.00 0.00 0.00 36 1011.6
20260507192712 53 303 4.3 12.2 0.00 0.00 0.00 36 1011.6
20260507192634 53 286 3.5 13.0 0.00 0.00 0.00 36 1011.7
20260507192535 53 306 4.3 14.8 0.00 0.00 0.00 35 1011.6
20260507192415 53 297 6.1 14.8 0.00 0.00 0.00 36 1011.7
20260507192314 54 298 7.0 14.8 0.00 0.00 0.00 35 1011.8
20260507192238 54 315 8.7 14.8 0.00 0.00 0.00 35 1011.7
20260507192118 54 310 8.7 14.8 0.00 0.00 0.00 36 1011.7
20260507192025 55 313 7.0 14.8 0.00 0.00 0.00 37 1011.7
20260507191929 55 306 7.8 14.8 0.00 0.00 0.00 37 1011.7
20260507191813 55 311 7.8 14.8 0.00 0.00 0.00 36 1011.7
20260507191717 55 303 7.8 14.8 0.00 0.00 0.00 39 1011.7
20260507191621 55 289 9.6 14.8 0.00 0.00 0.00 37 1011.7
20260507191525 55 302 9.6 14.8 0.00 0.00 0.00 40 1011.6
20260507191414 55 292 5.2 11.3 0.00 0.00 0.00 38 1011.7
20260507191318 55 267 4.3 8.7 0.00 0.00 0.00 37 1011.7
20260507191222 55 257 4.3 8.7 0.00 0.00 0.00 40 1011.6
20260507191106 55 300 2.6 9.6 0.00 0.00 0.00 43 1011.7
20260507191010 55 327 5.2 10.4 0.00 0.00 0.00 39 1011.7
20260507190935 55 340 7.0 11.3 0.00 0.00 0.00 38 1011.8
20260507190817 55 302 7.8 12.2 0.00 0.00 0.00 40 1011.8
20260507190705 55 295 5.2 12.2 0.00 0.00 0.00 36 1011.7
20260507190630 55 286 4.3 12.2 0.00 0.00 0.00 36 1011.7
20260507190507 55 333 5.2 12.2 0.00 0.00 0.00 36 1011.7
20260507190413 55 33 6.1 12.2 0.00 0.00 0.00 35 1011.8
20260507190317 55 9 7.0 12.2 0.00 0.00 0.00 37 1011.8
20260507190221 55 17 7.8 12.2 0.00 0.00 0.00 37 1011.7
20260507190110 55 331 7.8 13.0 0.00 0.00 0.00 37 1011.7
20260507190035 55 355 7.8 13.0 0.00 0.00 0.00 37 1011.7
20260507185957 55 342 4.3 13.0 0.00 0.00 0.00 37 1011.7
20260507185731 55 45 4.3 13.0 0.00 0.00 0.00 36 1011.7
20260507185635 55 360 5.2 13.0 0.00 0.00 0.00 37 1011.7
20260507185519 55 284 6.1 13.0 0.00 0.00 0.00 37 1011.7
20260507185422 55 267 7.8 13.0 0.00 0.00 0.00 37 1011.7
20260507185310 55 290 7.8 13.0 0.00 0.00 0.00 37 1011.7
20260507185213 55 24 5.2 11.3 0.00 0.00 0.00 37 1011.7
20260507185117 55 331 3.5 11.3 0.00 0.00 0.00 38 1011.6
20260507185022 55 9 2.6 13.9 0.00 0.00 0.00 37 1011.7
20260507184906 55 336 3.5 13.9 0.00 0.00 0.00 36 1011.8
20260507184810 55 314 5.2 13.9 0.00 0.00 0.00 37 1011.7
20260507184714 55 326 7.0 13.9 0.00 0.00 0.00 40 1011.7
20260507184622 55 288 7.0 13.9 0.00 0.00 0.00 42 1011.7
20260507184506 55 301 6.1 13.9 0.00 0.00 0.00 36 1011.7
20260507184411 55 335 7.8 13.9 0.00 0.00 0.00 37 1011.8
20260507184335 55 12 8.7 13.9 0.00 0.00 0.00 37 1011.8
20260507184218 54 336 8.7 13.9 0.00 0.00 0.00 39 1011.8
20260507184124 54 350 8.7 13.9 0.00 0.00 0.00 38 1012.0
20260507184012 54 321 7.8 14.8 0.00 0.00 0.00 39 1011.8
20260507183916 54 349 8.7 16.5 0.00 0.00 0.00 36 1011.9
20260507183818 54 323 7.8 16.5 0.00 0.00 0.00 39 1011.8
20260507183723 54 300 7.0 16.5 0.00 0.00 0.00 37 1011.9
20260507183646 54 11 7.8 16.5 0.00 0.00 0.00 38 1011.8
20260507183510 54 319 4.3 16.5 0.00 0.00 0.00 39 1011.7
20260507183418 54 32 3.5 16.5 0.00 0.00 0.00 43 1011.8
20260507183322 54 342 7.8 16.5 0.00 0.00 0.00 40 1011.8
20260507183207 54 292 12.2 16.5 0.00 0.00 0.00 39 1011.9
20260507183131 54 290 8.7 16.5 0.00 0.00 0.00 38 1011.8
20260507183014 54 296 4.3 11.3 0.00 0.00 0.00 37 1011.8
20260507182939 54 257 2.6 11.3 0.00 0.00 0.00 39 1011.9
20260507182822 54 40 2.6 11.3 0.00 0.00 0.00 43 1011.8
20260507182710 54 277 5.2 11.3 0.00 0.00 0.00 41 1011.9
20260507182615 54 270 6.1 11.3 0.00 0.00 0.00 39 1011.9
20260507182519 54 267 4.3 11.3 0.00 0.00 0.00 35 1011.9
20260507182421 54 298 4.3 11.3 0.00 0.00 0.00 37 1012.0
20260507182324 54 60 6.1 11.3 0.00 0.00 0.00 34 1011.9
20260507182228 54 17 7.0 11.3 0.00 0.00 0.00 38 1012.0
20260507182115 54 351 5.2 11.3 0.00 0.00 0.00 40 1012.0
20260507182018 54 355 3.5 11.3 0.00 0.00 0.00 41 1012.0
20260507181922 54 11 3.5 11.3 0.00 0.00 0.00 39 1012.0
20260507181806 54 37 7.0 11.3 0.00 0.00 0.00 39 1012.0
20260507181710 53 10 7.8 11.3 0.00 0.00 0.00 38 1012.1
20260507181614 53 349 7.0 11.3 0.00 0.00 0.00 39 1012.0
20260507181522 53 20 5.2 8.7 0.00 0.00 0.00 38 1012.1
20260507181406 53 342 4.3 8.7 0.00 0.00 0.00 41 1012.0
20260507181330 53 13 4.3 8.7 0.00 0.00 0.00 44 1012.0
20260507181207 53 337 4.3 8.7 0.00 0.00 0.00 41 1012.1
20260507181111 53 287 6.1 8.7 0.00 0.00 0.00 40 1012.1
20260507181018 53 307 5.2 8.7 0.00 0.00 0.00 41 1012.0
20260507180907 53 304 2.6 7.8 0.00 0.00 0.00 39 1012.0
20260507180831 53 5 4.3 9.6 0.00 0.00 0.00 39 1012.0
20260507180713 53 280 4.3 9.6 0.00 0.00 0.00 40 1012.1
20260507180617 53 301 3.5 9.6 0.00 0.00 0.00 41 1012.0
20260507180522 52 347 4.3 9.6 0.00 0.00 0.00 41 1012.0
20260507180407 52 355 5.2 9.6 0.00 0.00 0.00 42 1012.1
20260507180330 52 63 4.3 9.6 0.00 0.00 0.00 41 1012.1
20260507180217 52 63 4.3 13.0 0.00 0.00 0.00 41 1012.2
20260507180119 52 32 5.2 13.0 0.00 0.00 0.00 40 1012.1
20260507180020 52 59 5.2 13.0 0.00 0.00 0.00 38 1012.3
20260507175921 52 61 5.2 13.0 0.00 0.00 0.00 38 1012.3
20260507175822 52 27 5.2 13.0 0.00 0.00 0.00 39 1012.3
20260507175724 53 39 5.2 13.0 0.00 0.00 0.00 38 1012.3
20260507175630 53 57 7.0 13.0 0.00 0.00 0.00 38 1012.3
20260507175505 53 11 7.8 13.0 0.00 0.00 0.00 39 1012.4
20260507175410 53 14 7.0 13.0 0.00 0.00 0.00 40 1012.3
20260507175314 53 12 6.1 11.3 0.00 0.00 0.00 38 1012.4
20260507175218 53 345 7.8 11.3 0.00 0.00 0.00 40 1012.3
20260507175122 53 337 6.1 11.3 0.00 0.00 0.00 38 1012.4
20260507175011 53 340 2.6 11.3 0.00 0.00 0.00 39 1012.3
20260507174913 53 5 5.2 11.3 0.00 0.00 0.00 36 1012.3
20260507174815 53 360 7.8 11.3 0.00 0.00 0.00 38 1012.3
20260507174721 53 336 7.0 11.3 0.00 0.00 0.00 39 1012.5
20260507174626 53 13 5.2 10.4 0.00 0.00 0.00 40 1012.4
20260507174550 53 355 5.2 9.6 0.00 0.00 0.00 37 1012.4
20260507174415 53 25 4.3 9.6 0.00 0.00 0.00 40 1012.4
20260507174339 53 343 3.5 8.7 0.00 0.00 0.00 39 1012.4
20260507174224 53 355 3.5 8.7 0.00 0.00 0.00 38 1012.4
20260507174109 53 251 4.3 9.6 0.00 0.00 0.00 37 1012.3
20260507174030 53 276 4.3 9.6 0.00 0.00 0.00 40 1012.3
20260507173907 53 343 4.3 9.6 0.00 0.00 0.00 42 1012.4
20260507173810 53 355 3.5 9.6 0.00 0.00 0.00 39 1012.4
20260507173718 53 9 1.7 9.6 0.00 0.00 0.00 40 1012.4
20260507173620 53 278 3.5 9.6 0.00 0.00 0.00 44 1012.4
20260507173524 52 321 4.3 9.6 0.00 0.00 0.00 42 1012.4
20260507173428 52 5 5.2 9.6 0.00 0.00 0.00 42 1012.5
20260507173309 52 306 4.3 9.6 0.00 0.00 0.00 39 1012.5
20260507173213 52 57 5.2 8.7 0.00 0.00 0.00 39 1012.5
20260507173137 52 18 5.2 9.6 0.00 0.00 0.00 41 1012.5
20260507173023 52 11 4.3 10.4 0.00 0.00 0.00 43 1012.5
20260507172908 52 308 2.6 10.4 0.00 0.00 0.00 43 1012.5
20260507172811 52 17 2.6 10.4 0.00 0.00 0.00 42 1012.4
20260507172715 52 15 3.5 10.4 0.00 0.00 0.00 39 1012.5
20260507172637 52 38 4.3 10.4 0.00 0.00 0.00 38 1012.5
20260507172517 52 46 4.3 10.4 0.00 0.00 0.00 38 1012.6
20260507172417 52 36 5.2 10.4 0.00 0.00 0.00 39 1012.6
20260507172323 52 39 6.1 10.4 0.00 0.00 0.00 41 1012.6
20260507172207 51 344 7.0 10.4 0.00 0.00 0.00 41 1012.6
20260507172131 51 360 7.0 10.4 0.00 0.00 0.00 41 1012.6
20260507172007 51 360 5.2 10.4 0.00 0.00 0.00 44 1012.6
20260507171911 51 341 4.3 8.7 0.00 0.00 0.00 42 1012.5
20260507171816 51 21 4.3 8.7 0.00 0.00 0.00 42 1012.5
20260507171724 51 336 5.2 9.6 0.00 0.00 0.00 43 1012.5
20260507171648 51 54 5.2 9.6 0.00 0.00 0.00 40 1012.6
20260507171507 51 32 5.2 9.6 0.00 0.00 0.00 43 1012.6
20260507171432 51 69 3.5 9.6 0.00 0.00 0.00 41 1012.6
20260507171311 51 65 2.6 9.6 0.00 0.00 0.00 39 1012.5
20260507171235 51 121 4.3 10.4 0.00 0.00 0.00 38 1012.5
20260507171116 51 110 5.2 10.4 0.00 0.00 0.00 40 1012.5
20260507171022 51 88 6.1 10.4 0.00 0.00 0.00 42 1012.6
20260507170905 51 65 7.0 10.4 0.00 0.00 0.00 41 1012.7
20260507170829 51 71 6.1 10.4 0.00 0.00 0.00 39 1012.6
20260507170711 51 87 5.2 10.4 0.00 0.00 0.00 39 1012.6
20260507170612 52 77 4.3 10.4 0.00 0.00 0.00 39 1012.7
20260507170533 52 61 5.2 10.4 0.00 0.00 0.00 39 1012.7
20260507170413 52 58 5.2 10.4 0.00 0.00 0.00 39 1012.8
20260507170317 52 71 4.3 10.4 0.00 0.00 0.00 41 1012.7
20260507170222 52 36 5.2 10.4 0.00 0.00 0.00 40 1012.7
20260507170126 52 320 7.8 10.4 0.00 0.00 0.00 42 1012.7
20260507170008 52 22 6.1 10.4 0.00 0.00 0.00 43 1012.8
20260507165932 52 10 5.2 10.4 0.00 0.00 0.00 42 1012.7
20260507165807 52 335 4.3 7.8 0.00 0.00 0.00 43 1012.7
20260507165711 52 42 4.3 7.8 0.00 0.00 0.00 44 1012.8
20260507165620 52 9 3.5 7.8 0.00 0.00 0.00 43 1012.8
20260507165541 51 290 3.5 5.2 0.00 0.00 0.00 43 1012.8
20260507165424 51 16 2.6 4.3 0.00 0.00 0.00 44 1012.9
20260507165347 51 321 2.6 4.3 0.00 0.00 0.00 45 1012.7
20260507165251 51 5 2.6 6.1 0.00 0.00 0.00 43 1012.8
20260507165107 51 166 0.9 7.0 0.00 0.00 0.00 46 1012.8
20260507165011 51 166 0.9 7.0 0.00 0.00 0.00 45 1012.8
20260507164936 51 166 0.9 7.0 0.00 0.00 0.00 44 1012.8
20260507164822 51 166 0.9 7.0 0.00 0.00 0.00 45 1012.8
20260507164726 51 166 0.9 9.6 0.00 0.00 0.00 41 1012.8
20260507164627 51 142 2.6 9.6 0.00 0.00 0.00 40 1012.7
20260507164509 51 142 4.3 10.4 0.00 0.00 0.00 41 1012.8
20260507164433 51 121 3.5 10.4 0.00 0.00 0.00 41 1012.8
20260507164316 51 96 3.5 10.4 0.00 0.00 0.00 42 1013.0
20260507164240 51 67 4.3 10.4 0.00 0.00 0.00 44 1013.0
20260507164107 51 46 4.3 10.4 0.00 0.00 0.00 42 1013.1
20260507164010 51 355 4.3 10.4 0.00 0.00 0.00 43 1013.0
20260507163934 51 344 7.0 10.4 0.00 0.00 0.00 41 1013.0
20260507163817 51 342 7.8 10.4 0.00 0.00 0.00 40 1013.1
20260507163737 51 360 6.1 10.4 0.00 0.00 0.00 41 1013.1
20260507163621 51 360 2.6 9.6 0.00 0.00 0.00 43 1013.1
20260507163508 51 24 2.6 9.6 0.00 0.00 0.00 45 1013.0
20260507163412 50 14 4.3 10.4 0.00 0.00 0.00 41 1013.1
20260507163313 50 355 5.2 10.4 0.00 0.00 0.00 41 1013.1
20260507163215 50 45 7.0 10.4 0.00 0.00 0.00 41 1013.1
20260507163116 50 360 7.0 10.4 0.00 0.00 0.00 40 1013.1
20260507163017 50 360 5.2 10.4 0.00 0.00 0.00 41 1013.1
20260507162938 50 206 3.5 10.4 0.00 0.00 0.00 39 1013.1
20260507162824 51 12 4.3 10.4 0.00 0.00 0.00 40 1013.0
20260507162723 51 26 6.1 10.4 0.00 0.00 0.00 43 1013.3
20260507162627 51 335 6.1 10.4 0.00 0.00 0.00 41 1013.2
20260507162508 51 338 6.1 10.4 0.00 0.00 0.00 42 1013.2
20260507162413 51 332 6.1 10.4 0.00 0.00 0.00 44 1013.2
20260507162337 51 294 4.3 9.6 0.00 0.00 0.00 46 1013.2
20260507162220 50 355 5.2 7.8 0.00 0.00 0.00 44 1013.2
20260507162127 50 63 5.2 7.8 0.00 0.00 0.00 43 1013.2
20260507162011 50 51 3.5 7.8 0.00 0.00 0.00 45 1013.2
20260507161914 50 69 2.6 7.0 0.00 0.00 0.00 43 1013.2
20260507161839 50 25 4.3 7.0 0.00 0.00 0.00 42 1013.1
20260507161719 50 78 5.2 8.7 0.00 0.00 0.00 41 1013.2
20260507161642 50 79 3.5 9.6 0.00 0.00 0.00 43 1013.2
20260507161545 50 92 2.6 9.6 0.00 0.00 0.00 41 1013.2
20260507161411 50 64 2.6 9.6 0.00 0.00 0.00 44 1013.2
20260507161335 50 110 2.6 9.6 0.00 0.00 0.00 45 1013.2
20260507161239 50 71 2.6 9.6 0.00 0.00 0.00 45 1013.3
20260507161124 50 44 3.5 9.6 0.00 0.00 0.00 44 1013.2
20260507161029 50 30 5.2 9.6 0.00 0.00 0.00 40 1013.3
20260507160931 50 70 4.3 9.6 0.00 0.00 0.00 43 1013.2
20260507160808 50 69 3.5 8.7 0.00 0.00 0.00 42 1013.2
20260507160709 50 60 2.6 8.7 0.00 0.00 0.00 45 1013.2
20260507160617 50 76 2.6 8.7 0.00 0.00 0.00 43 1013.3
20260507160521 50 277 4.3 9.6 0.00 0.00 0.00 42 1013.2
20260507160426 50 30 5.2 9.6 0.00 0.00 0.00 48 1013.3
20260507160328 50 338 5.2 9.6 0.00 0.00 0.00 46 1013.2
20260507160211 50 325 6.1 11.3 0.00 0.00 0.00 45 1013.2
20260507160114 49 297 7.0 11.3 0.00 0.00 0.00 45 1013.2
20260507160022 49 280 6.1 11.3 0.00 0.00 0.00 44 1013.2
20260507155946 49 355 6.1 11.3 0.00 0.00 0.00 46 1013.1
20260507155828 49 304 5.2 11.3 0.00 0.00 0.00 43 1013.3
20260507155752 49 338 7.0 11.3 0.00 0.00 0.00 45 1013.3
20260507155608 49 331 7.0 11.3 0.00 0.00 0.00 45 1013.3
20260507155512 49 321 7.0 11.3 0.00 0.00 0.00 49 1013.2
20260507155416 49 305 6.1 11.3 0.00 0.00 0.00 46 1013.2
20260507155324 49 287 5.2 9.6 0.00 0.00 0.00 45 1013.2
20260507155207 49 298 4.3 8.7 0.00 0.00 0.00 45 1013.2
20260507155110 49 311 2.6 7.0 0.00 0.00 0.00 47 1013.2
20260507155014 49 329 2.6 7.8 0.00 0.00 0.00 49 1013.3
20260507154917 49 86 1.7 7.8 0.00 0.00 0.00 46 1013.3
20260507154821 49 57 2.6 7.8 0.00 0.00 0.00 46 1013.2
20260507154729 49 57 3.5 7.8 0.00 0.00 0.00 46 1013.3
20260507154606 49 65 4.3 7.8 0.00 0.00 0.00 45 1013.3
20260507154510 49 71 4.3 7.8 0.00 0.00 0.00 47 1013.3
20260507154433 49 69 3.5 7.8 0.00 0.00 0.00 48 1013.3
20260507154316 49 47 4.3 7.8 0.00 0.00 0.00 48 1013.2
20260507154239 49 360 3.5 7.8 0.00 0.00 0.00 49 1013.3
20260507154123 49 26 2.6 4.3 0.00 0.00 0.00 48 1013.3
20260507154011 48 325 2.6 4.3 0.00 0.00 0.00 49 1013.2
20260507153914 48 319 3.5 4.3 0.00 0.00 0.00 49 1013.3
20260507153818 48 5 3.5 4.3 0.00 0.00 0.00 48 1013.3
20260507153721 48 338 2.6 4.3 0.00 0.00 0.00 49 1013.3
20260507153605 48 327 1.7 4.3 0.00 0.00 0.00 48 1013.3
20260507153509 48 290 1.7 7.8 0.00 0.00 0.00 47 1013.3
20260507153417 48 338 2.6 7.8 0.00 0.00 0.00 48 1013.3
20260507153321 48 336 2.6 7.8 0.00 0.00 0.00 48 1013.3
20260507153225 48 344 2.6 7.8 0.00 0.00 0.00 49 1013.3
20260507153128 48 246 2.6 7.8 0.00 0.00 0.00 48 1013.3
20260507153012 48 247 1.7 8.7 0.00 0.00 0.00 51 1013.3
20260507152933 48 70 2.6 8.7 0.00 0.00 0.00 48 1013.3
20260507152817 48 70 3.5 10.4 0.00 0.00 0.00 48 1013.3
20260507152744 48 30 4.3 11.3 0.00 0.00 0.00 49 1013.4
20260507152608 48 331 3.5 11.3 0.00 0.00 0.00 50 1013.3
20260507152532 48 300 2.6 11.3 0.00 0.00 0.00 48 1013.4
20260507152414 48 279 4.3 11.3 0.00 0.00 0.00 47 1013.3
20260507152318 48 277 5.2 11.3 0.00 0.00 0.00 49 1013.3
20260507152241 48 275 5.2 11.3 0.00 0.00 0.00 50 1013.4
20260507152144 48 32 6.1 11.3 0.00 0.00 0.00 47 1013.4
20260507152010 48 19 5.2 11.3 0.00 0.00 0.00 48 1013.4
20260507151914 48 5 4.3 11.3 0.00 0.00 0.00 50 1013.4
20260507151818 47 30 5.2 9.6 0.00 0.00 0.00 49 1013.4
20260507151723 47 338 4.3 11.3 0.00 0.00 0.00 50 1013.3
20260507151608 47 19 3.5 11.3 0.00 0.00 0.00 49 1013.3
20260507151511 47 322 2.6 11.3 0.00 0.00 0.00 50 1013.3
20260507151434 47 289 3.5 11.3 0.00 0.00 0.00 49 1013.4
20260507151321 47 28 3.5 11.3 0.00 0.00 0.00 47 1013.4
20260507151206 47 338 2.6 11.3 0.00 0.00 0.00 51 1013.4
20260507151109 47 303 3.5 11.3 0.00 0.00 0.00 51 1013.4
20260507151014 47 325 6.1 11.3 0.00 0.00 0.00 49 1013.4
20260507150918 47 290 7.0 11.3 0.00 0.00 0.00 51 1013.4
20260507150841 47 294 3.5 9.6 0.00 0.00 0.00 50 1013.4
20260507150728 47 329 1.7 7.0 0.00 0.00 0.00 49 1013.4
20260507150630 47 288 0.9 7.0 0.00 0.00 0.00 49 1013.4
20260507150506 47 288 2.6 7.8 0.00 0.00 0.00 51 1013.4
20260507150410 47 292 4.3 7.8 0.00 0.00 0.00 51 1013.4
20260507150333 47 298 4.3 7.8 0.00 0.00 0.00 50 1013.5
20260507150236 47 325 2.6 7.8 0.00 0.00 0.00 51 1013.5
20260507150118 47 342 2.6 7.8 0.00 0.00 0.00 51 1013.4
20260507150006 47 285 4.3 8.7 0.00 0.00 0.00 49 1013.4
20260507145929 47 292 6.1 8.7 0.00 0.00 0.00 50 1013.4
20260507145812 47 298 6.1 8.7 0.00 0.00 0.00 51 1013.3
20260507145736 47 273 5.2 8.7 0.00 0.00 0.00 50 1013.4
20260507145620 47 313 4.3 8.7 0.00 0.00 0.00 52 1013.4
20260507145544 47 339 4.3 8.7 0.00 0.00 0.00 52 1013.4
20260507145407 47 9 6.1 8.7 0.00 0.00 0.00 50 1013.4
20260507145309 47 344 5.2 8.7 0.00 0.00 0.00 50 1013.4
20260507145217 47 294 4.3 8.7 0.00 0.00 0.00 50 1013.4
20260507145121 47 292 4.3 7.0 0.00 0.00 0.00 51 1013.5
20260507145024 47 360 4.3 7.0 0.00 0.00 0.00 52 1013.5
20260507144928 47 5 3.5 7.0 0.00 0.00 0.00 53 1013.5
20260507144805 47 44 1.7 7.0 0.00 0.00 0.00 53 1013.5
20260507144709 46 44 1.7 7.0 0.00 0.00 0.00 54 1013.5
20260507144618 46 71 1.7 7.0 0.00 0.00 0.00 54 1013.5
20260507144523 46 72 1.7 7.0 0.00 0.00 0.00 51 1013.5
20260507144407 46 70 1.7 7.0 0.00 0.00 0.00 53 1013.4
20260507144310 46 44 2.6 7.0 0.00 0.00 0.00 54 1013.5
20260507144214 46 40 3.5 7.0 0.00 0.00 0.00 51 1013.5
20260507144118 46 38 4.3 7.0 0.00 0.00 0.00 51 1013.6
20260507144005 46 55 3.5 7.0 0.00 0.00 0.00 51 1013.5
20260507143909 46 30 3.5 7.0 0.00 0.00 0.00 54 1013.5
20260507143831 46 355 2.6 5.2 0.00 0.00 0.00 54 1013.6
20260507143714 46 16 1.7 6.1 0.00 0.00 0.00 53 1013.5
20260507143618 46 20 1.7 5.2 0.00 0.00 0.00 52 1013.4
20260507143521 46 17 2.6 5.2 0.00 0.00 0.00 52 1013.5
20260507143429 46 5 3.5 5.2 0.00 0.00 0.00 54 1013.4
20260507143306 46 360 2.6 5.2 0.00 0.00 0.00 54 1013.5
20260507143209 46 336 1.7 4.3 0.00 0.00 0.00 54 1013.4
20260507143113 46 46 2.6 6.1 0.00 0.00 0.00 53 1013.4
20260507143038 46 26 3.5 6.1 0.00 0.00 0.00 53 1013.4
20260507142919 46 35 2.6 6.1 0.00 0.00 0.00 56 1013.5
20260507142808 46 360 2.6 6.1 0.00 0.00 0.00 55 1013.5
20260507142732 46 290 3.5 6.1 0.00 0.00 0.00 55 1013.4
20260507142615 46 264 2.6 6.1 0.00 0.00 0.00 57 1013.5
20260507142539 46 276 2.6 6.1 0.00 0.00 0.00 58 1013.4
20260507142422 46 273 3.5 6.1 0.00 0.00 0.00 57 1013.5
20260507142326 45 257 3.5 6.1 0.00 0.00 0.00 56 1013.5
20260507142209 45 241 2.6 5.2 0.00 0.00 0.00 55 1013.5
20260507142133 45 276 2.6 5.2 0.00 0.00 0.00 56 1013.5
20260507142020 45 277 3.5 5.2 0.00 0.00 0.00 56 1013.5
20260507141924 45 292 2.6 5.2 0.00 0.00 0.00 56 1013.5
20260507141806 45 295 0.9 5.2 0.00 0.00 0.00 56 1013.5
20260507141709 45 342 0.9 5.2 0.00 0.00 0.00 55 1013.5
20260507141614 45 341 1.7 5.2 0.00 0.00 0.00 56 1013.5
20260507141518 45 340 2.6 5.2 0.00 0.00 0.00 55 1013.5
20260507141406 45 327 2.6 5.2 0.00 0.00 0.00 55 1013.5
20260507141310 45 321 3.5 4.3 0.00 0.00 0.00 57 1013.5
20260507141213 45 321 3.5 4.3 0.00 0.00 0.00 57 1013.5
20260507141137 45 303 1.7 4.3 0.00 0.00 0.00 58 1013.5
20260507141019 45 236 0.9 4.3 0.00 0.00 0.00 58 1013.6
20260507140922 45 238 1.7 4.3 0.00 0.00 0.00 59 1013.6
20260507140826 44 219 1.7 7.0 0.00 0.00 0.00 59 1013.6
20260507140729 44 217 1.7 7.0 0.00 0.00 0.00 58 1013.6
20260507140616 44 355 2.6 7.0 0.00 0.00 0.00 58 1013.7
20260507140540 44 345 2.6 7.0 0.00 0.00 0.00 59 1013.7
20260507140442 44 336 2.6 7.0 0.00 0.00 0.00 61 1013.8
20260507140305 44 287 1.7 7.0 0.00 0.00 0.00 58 1013.8
20260507140210 44 288 2.6 7.0 0.00 0.00 0.00 59 1013.7
20260507140114 44 281 3.5 7.0 0.00 0.00 0.00 58 1013.7
20260507140017 44 301 3.5 7.0 0.00 0.00 0.00 59 1013.7
20260507135925 44 298 3.5 7.0 0.00 0.00 0.00 59 1013.7
20260507135848 44 289 3.5 7.0 0.00 0.00 0.00 59 1013.7
20260507135752 44 302 3.5 7.0 0.00 0.00 0.00 60 1013.8
20260507135605 44 297 4.3 7.0 0.00 0.00 0.00 60 1013.7
20260507135508 44 297 4.3 7.0 0.00 0.00 0.00 61 1013.7
20260507135411 44 264 5.2 7.0 0.00 0.00 0.00 60 1013.7
20260507135334 44 292 5.2 7.0 0.00 0.00 0.00 61 1013.7
20260507135236 44 273 4.3 5.2 0.00 0.00 0.00 62 1013.7
20260507135121 44 281 3.5 5.2 0.00 0.00 0.00 62 1013.7
20260507135005 44 282 3.5 6.1 0.00 0.00 0.00 61 1013.8
20260507134908 44 308 3.5 6.1 0.00 0.00 0.00 61 1013.8
20260507134811 44 290 2.6 6.1 0.00 0.00 0.00 62 1013.8
20260507134714 43 327 2.6 5.2 0.00 0.00 0.00 63 1013.8
20260507134617 43 291 3.5 5.2 0.00 0.00 0.00 62 1013.8
20260507134524 43 313 2.6 6.1 0.00 0.00 0.00 63 1013.8
20260507134426 43 350 1.7 5.2 0.00 0.00 0.00 63 1013.8
20260507134310 43 304 2.6 5.2 0.00 0.00 0.00 64 1013.7
20260507134213 43 325 2.6 5.2 0.00 0.00 0.00 65 1013.8
20260507134117 43 300 2.6 5.2 0.00 0.00 0.00 65 1013.8
20260507134022 43 279 3.5 5.2 0.00 0.00 0.00 65 1013.8
20260507133944 43 293 1.7 7.8 0.00 0.00 0.00 65 1013.8
20260507133851 42 296 1.7 7.8 0.00 0.00 0.00 66 1013.8
20260507133706 42 345 2.6 7.8 0.00 0.00 0.00 66 1013.8
20260507133609 42 344 2.6 7.8 0.00 0.00 0.00 66 1013.8
20260507133513 42 306 2.6 7.8 0.00 0.00 0.00 67 1013.8
20260507133416 42 318 3.5 7.8 0.00 0.00 0.00 67 1013.8
20260507133320 42 298 3.5 7.8 0.00 0.00 0.00 67 1013.8
20260507133208 42 283 5.2 7.8 0.00 0.00 0.00 67 1013.8
20260507133113 42 302 6.1 7.8 0.00 0.00 0.00 68 1013.8
20260507133037 42 294 5.2 7.0 0.00 0.00 0.00 69 1013.8
20260507132921 42 290 3.5 7.0 0.00 0.00 0.00 70 1013.8
20260507132805 41 295 2.6 7.0 0.00 0.00 0.00 69 1013.9
20260507132710 41 304 2.6 7.0 0.00 0.00 0.00 70 1013.8
20260507132619 41 303 3.5 7.0 0.00 0.00 0.00 71 1013.8
20260507132523 41 325 3.5 7.0 0.00 0.00 0.00 72 1013.8
20260507132408 41 302 2.6 5.2 0.00 0.00 0.00 73 1013.8
20260507132311 41 342 1.7 5.2 0.00 0.00 0.00 73 1013.8
20260507132236 41 319 1.7 5.2 0.00 0.00 0.00 73 1013.8
20260507132119 40 331 1.7 5.2 0.00 0.00 0.00 73 1013.8
20260507132005 40 337 2.6 5.2 0.00 0.00 0.00 72 1013.8
20260507131929 40 297 2.6 5.2 0.00 0.00 0.00 72 1013.9
20260507131807 40 300 3.5 5.2 0.00 0.00 0.00 72 1013.9
20260507131731 40 309 4.3 5.2 0.00 0.00 0.00 72 1013.8
20260507131634 40 309 4.3 5.2 0.00 0.00 0.00 73 1013.8
20260507131537 40 317 2.6 4.3 0.00 0.00 0.00 74 1013.8
20260507131420 40 321 2.6 3.5 0.00 0.00 0.00 75 1013.9
20260507131344 40 313 1.7 4.3 0.00 0.00 0.00 74 1013.9
20260507131212 40 350 1.7 4.3 0.00 0.00 0.00 74 1013.8
20260507131115 40 350 1.7 4.3 0.00 0.00 0.00 74 1013.8
20260507131019 39 355 1.7 4.3 0.00 0.00 0.00 74 1013.8
20260507130923 39 342 1.7 4.3 0.00 0.00 0.00 75 1013.8
20260507130828 39 313 2.6 4.3 0.00 0.00 0.00 75 1013.8
20260507130711 39 307 2.6 4.3 0.00 0.00 0.00 75 1013.8
20260507130635 39 304 2.6 4.3 0.00 0.00 0.00 75 1013.8
20260507130523 39 320 3.5 4.3 0.00 0.00 0.00 76 1013.9
20260507130407 39 291 3.5 4.3 0.00 0.00 0.00 77 1013.8
20260507130331 39 293 2.6 3.5 0.00 0.00 0.00 77 1013.9
20260507130208 39 286 0.9 3.5 0.00 0.00 0.00 79 1013.9
20260507130113 39 284 0.9 2.6 0.00 0.00 0.00 79 1013.9
20260507130037 38 284 0.9 2.6 0.00 0.00 0.00 79 1013.9
20260507125920 38 284 0.9 2.6 0.00 0.00 0.00 79 1013.9
20260507125808 38 284 1.7 2.6 0.00 0.00 0.00 79 1013.9
20260507125713 38 284 1.7 2.6 0.00 0.00 0.00 79 1013.9
20260507125617 38 284 1.7 2.6 0.00 0.00 0.00 79 1013.9
20260507125521 38 284 1.7 3.5 0.00 0.00 0.00 80 1013.9
20260507125425 37 284 1.7 3.5 0.00 0.00 0.00 80 1013.9
20260507125313 37 285 1.7 3.5 0.00 0.00 0.00 80 1013.9
20260507125237 37 285 1.7 3.5 0.00 0.00 0.00 80 1013.9
20260507125121 37 285 1.7 3.5 0.00 0.00 0.00 81 1013.9
20260507124910 37 286 1.7 3.5 0.00 0.00 0.00 81 1014.0
20260507124815 37 285 2.6 3.5 0.00 0.00 0.00 81 1013.9
20260507124739 37 285 1.7 4.3 0.00 0.00 0.00 82 1013.9
20260507124607 37 275 1.7 4.3 0.00 0.00 0.00 83 1014.0
20260507124511 37 275 1.7 4.3 0.00 0.00 0.00 83 1013.9
20260507124416 37 275 2.6 4.3 0.00 0.00 0.00 83 1014.0
20260507124320 37 275 1.7 4.3 0.00 0.00 0.00 84 1014.0
20260507124244 36 275 1.7 4.3 0.00 0.00 0.00 84 1013.9
20260507124107 36 284 2.6 4.3 0.00 0.00 0.00 85 1013.9
20260507124031 36 282 2.6 4.3 0.00 0.00 0.00 85 1013.9
20260507123918 36 284 2.6 4.3 0.00 0.00 0.00 86 1014.0
20260507123842 36 269 1.7 3.5 0.00 0.00 0.00 86 1014.0
20260507123706 36 259 1.7 3.5 0.00 0.00 0.00 87 1014.0
20260507123629 35 259 1.7 3.5 0.00 0.00 0.00 87 1014.0
20260507123506 35 259 1.7 3.5 0.00 0.00 0.00 88 1014.0
20260507123430 35 259 1.7 3.5 0.00 0.00 0.00 88 1013.9
20260507123333 35 259 2.6 3.5 0.00 0.00 0.00 88 1013.9
20260507123220 35 258 1.7 3.5 0.00 0.00 0.00 89 1013.9
20260507123125 34 258 1.7 3.5 0.00 0.00 0.00 89 1013.9
20260507123009 34 257 1.7 2.6 0.00 0.00 0.00 89 1014.0
20260507122913 34 257 1.7 2.6 0.00 0.00 0.00 90 1014.0
20260507122818 34 257 1.7 2.6 0.00 0.00 0.00 90 1013.9
20260507122722 34 257 1.7 2.6 0.00 0.00 0.00 90 1014.0
20260507122611 33 257 1.7 2.6 0.00 0.00 0.00 91 1013.9
20260507122515 33 257 1.7 2.6 0.00 0.00 0.00 91 1013.9
20260507122418 33 257 1.7 2.6 0.00 0.00 0.00 91 1013.9
20260507122323 33 257 1.7 2.6 0.00 0.00 0.00 91 1013.9
20260507122208 33 270 1.7 2.6 0.00 0.00 0.00 90 1013.9
20260507122113 32 27 1.7 2.6 0.00 0.00 0.00 90 1013.9
20260507122021 32 35 0.9 2.6 0.00 0.00 0.00 90 1013.9
20260507121906 32 44 0.9 2.6 0.00 0.00 0.00 91 1014.0
20260507121830 32 44 0.9 2.6 0.00 0.00 0.00 91 1014.0
20260507121706 32 44 0.9 2.6 0.00 0.00 0.00 90 1014.0
20260507121610 31 51 1.7 2.6 0.00 0.00 0.00 90 1014.0
20260507121515 31 51 1.7 2.6 0.00 0.00 0.00 90 1014.0
20260507121424 31 51 1.7 2.6 0.00 0.00 0.00 89 1013.9
20260507121327 31 51 1.7 2.6 0.00 0.00 0.00 90 1013.9
20260507121230 31 52 1.7 1.7 0.00 0.00 0.00 89 1014.0
20260507121114 31 52 1.7 1.7 0.00 0.00 0.00 89 1013.9
20260507121019 31 52 1.7 1.7 0.00 0.00 0.00 90 1014.0
20260507120925 31 52 0.9 1.7 0.00 0.00 0.00 90 1013.9
20260507120830 31 52 0.0 1.7 0.00 0.00 0.00 90 1013.9
20260507120738 31 52 0.0 0.0 0.00 0.00 0.00 90 1013.9
20260507120643 31 52 0.0 0.0 0.00 0.00 0.00 90 1013.9
20260507120507 31 52 0.0 0.0 0.00 0.00 0.00 90 1014.0
20260507120432 31 52 0.0 0.0 0.00 0.00 0.00 90 1014.0
20260507120337 30 52 0.0 0.0 0.00 0.00 0.00 90 1014.0
20260507120222 30 52 0.0 0.0 0.00 0.00 0.00 91 1014.0
20260507120127 30 52 0.0 0.0 0.00 0.00 0.00 91 1013.9
20260507120012 30 52 0.0 0.0 0.00 0.00 0.00 91 1014.0
20260507115942 30 52 0.0 0.0 0.00 0.00 0.00 91 1013.9
20260507115806 30 52 0.0 0.0 0.00 0.00 0.00 91 1013.9
20260507115710 30 52 0.0 0.0 0.00 0.00 0.00 91 1013.9
20260507115613 30 52 0.0 0.0 0.00 0.00 0.00 91 1013.9
20260507115532 30 52 0.0 0.0 0.00 0.00 0.00 91 1013.9
20260507115412 29 52 0.0 0.0 0.00 0.00 0.00 90 1013.9
20260507115312 29 52 0.0 0.9 0.00 0.00 0.00 90 1013.9
20260507115217 29 52 0.0 0.9 0.00 0.00 0.00 90 1013.9
20260507115118 29 52 0.0 0.9 0.00 0.00 0.00 90 1013.9
20260507115018 29 52 0.0 0.9 0.00 0.00 0.00 90 1013.9
20260507114939 29 52 0.0 0.9 0.00 0.00 0.00 90 1013.9
20260507114819 29 52 0.0 0.9 0.00 0.00 0.00 90 1014.0
20260507114721 29 52 0.0 0.9 0.00 0.00 0.00 91 1013.9
20260507114642 29 52 0.0 0.9 0.00 0.00 0.00 91 1013.9
20260507114506 29 52 0.0 0.9 0.00 0.00 0.00 91 1013.9
20260507114411 29 70 0.0 0.0 0.00 0.00 0.00 90 1013.9
20260507114314 29 70 0.0 0.0 0.00 0.00 0.00 90 1013.9
20260507114218 29 70 0.0 0.0 0.00 0.00 0.00 90 1014.0
20260507114143 29 70 0.0 0.0 0.00 0.00 0.00 90 1014.0
20260507114005 28 70 0.0 0.0 0.00 0.00 0.00 90 1014.0
20260507113930 28 70 0.0 0.0 0.00 0.00 0.00 90 1013.9
20260507113837 28 70 0.0 0.0 0.00 0.00 0.00 90 1014.0
20260507113721 28 70 0.0 0.0 0.00 0.00 0.00 90 1013.9
20260507113605 28 70 0.0 0.0 0.00 0.00 0.00 90 1013.9
20260507113511 28 70 0.0 0.0 0.00 0.00 0.00 90 1014.0
20260507113414 28 70 0.0 0.0 0.00 0.00 0.00 90 1013.9
20260507113339 28 70 0.0 0.0 0.00 0.00 0.00 90 1013.9
20260507113221 28 70 0.0 0.0 0.00 0.00 0.00 90 1013.9
20260507113109 28 70 0.0 0.0 0.00 0.00 0.00 89 1013.8
20260507113013 28 70 0.0 0.0 0.00 0.00 0.00 89 1013.8
20260507112937 28 70 0.0 0.0 0.00 0.00 0.00 89 1013.9
20260507112819 28 70 0.0 0.0 0.00 0.00 0.00 89 1013.8
20260507112705 28 70 0.0 0.0 0.00 0.00 0.00 89 1013.9
20260507112631 28 70 0.0 0.0 0.00 0.00 0.00 89 1013.8
20260507112520 28 70 0.0 0.0 0.00 0.00 0.00 89 1014.0
20260507112425 28 70 0.0 0.0 0.00 0.00 0.00 89 1013.8
20260507112310 28 70 0.0 0.0 0.00 0.00 0.00 89 1013.8
20260507112215 28 70 0.0 0.0 0.00 0.00 0.00 89 1013.8
20260507112122 28 70 0.0 0.0 0.00 0.00 0.00 89 1013.8
20260507112007 28 70 0.0 0.0 0.00 0.00 0.00 89 1013.8
20260507111914 28 70 0.0 0.0 0.00 0.00 0.00 89 1013.8
20260507111818 28 70 0.0 0.0 0.00 0.00 0.00 89 1013.8
20260507111723 28 70 0.0 0.0 0.00 0.00 0.00 88 1013.9
20260507111607 28 70 0.0 0.0 0.00 0.00 0.00 88 1013.8
20260507111511 28 70 0.0 0.0 0.00 0.00 0.00 88 1013.9
20260507111435 28 70 0.0 0.0 0.00 0.00 0.00 88 1013.9
20260507111322 28 70 0.0 0.0 0.00 0.00 0.00 88 1013.9
20260507111225 28 70 0.0 0.0 0.00 0.00 0.00 88 1014.0
20260507111110 28 70 0.0 0.0 0.00 0.00 0.00 88 1014.0
20260507111013 28 70 0.0 0.0 0.00 0.00 0.00 88 1013.9
20260507110917 28 70 0.0 0.0 0.00 0.00 0.00 88 1013.9
20260507110821 28 70 0.0 0.0 0.00 0.00 0.00 88 1014.0
20260507110708 28 70 0.0 0.0 0.00 0.00 0.00 88 1014.0
20260507110613 28 70 0.0 0.0 0.00 0.00 0.00 88 1014.0
20260507110538 28 70 0.0 0.0 0.00 0.00 0.00 88 1014.0
20260507110422 28 70 0.0 0.0 0.00 0.00 0.00 88 1013.9
20260507110345 28 70 0.0 0.0 0.00 0.00 0.00 88 1014.0
20260507110209 29 70 0.0 0.0 0.00 0.00 0.00 88 1014.0
20260507110132 29 70 0.0 0.0 0.00 0.00 0.00 88 1014.0
20260507110019 29 70 0.0 0.0 0.00 0.00 0.00 88 1014.0
20260507105924 29 70 0.0 0.0 0.00 0.00 0.00 88 1014.0
20260507105827 29 70 0.0 0.9 0.00 0.00 0.00 88 1014.0
20260507105710 29 70 0.0 1.7 0.00 0.00 0.00 88 1014.0
20260507105635 29 360 0.0 1.7 0.00 0.00 0.00 88 1014.0
20260507105517 29 360 0.0 1.7 0.00 0.00 0.00 88 1014.0
20260507105420 29 360 0.0 1.7 0.00 0.00 0.00 88 1013.9
20260507105307 29 51 0.0 2.6 0.00 0.00 0.00 89 1013.9
20260507105231 29 51 0.0 2.6 0.00 0.00 0.00 89 1013.9
20260507105113 29 51 0.0 2.6 0.00 0.00 0.00 89 1013.9
20260507105016 29 51 0.9 2.6 0.00 0.00 0.00 89 1014.0
20260507104920 29 51 0.9 2.6 0.00 0.00 0.00 89 1013.9
20260507104822 29 51 0.9 2.6 0.00 0.00 0.00 89 1014.0
20260507104746 29 51 0.9 2.6 0.00 0.00 0.00 89 1013.9
20260507104632 29 51 0.9 2.6 0.00 0.00 0.00 89 1013.8
20260507104508 29 51 1.7 2.6 0.00 0.00 0.00 89 1013.9
20260507104411 29 51 1.7 2.6 0.00 0.00 0.00 89 1013.8
20260507104314 29 51 2.6 2.6 0.00 0.00 0.00 89 1013.9
20260507104217 29 51 2.6 2.6 0.00 0.00 0.00 89 1013.8
20260507104120 29 51 1.7 2.6 0.00 0.00 0.00 89 1013.9
20260507104006 29 51 1.7 2.6 0.00 0.00 0.00 89 1013.8
20260507103930 29 51 0.9 1.7 0.00 0.00 0.00 88 1013.8
20260507103832 29 51 0.9 1.7 0.00 0.00 0.00 88 1013.7
20260507103708 29 51 0.9 1.7 0.00 0.00 0.00 89 1013.8
20260507103612 29 51 0.9 1.7 0.00 0.00 0.00 89 1013.8
20260507103515 29 51 0.9 1.7 0.00 0.00 0.00 89 1013.8
20260507103438 29 51 0.9 1.7 0.00 0.00 0.00 89 1013.8
20260507103341 29 51 0.9 1.7 0.00 0.00 0.00 89 1013.8
20260507103206 29 51 0.9 2.6 0.00 0.00 0.00 89 1013.8
20260507103109 29 51 0.9 2.6 0.00 0.00 0.00 89 1013.8
20260507103012 29 51 0.9 2.6 0.00 0.00 0.00 89 1013.8
20260507102914 29 51 0.9 3.5 0.00 0.00 0.00 89 1013.8
20260507102817 29 51 0.9 3.5 0.00 0.00 0.00 89 1013.8
20260507102721 29 51 1.7 3.5 0.00 0.00 0.00 89 1013.8
20260507102607 29 51 1.7 3.5 0.00 0.00 0.00 89 1013.8
20260507102530 29 51 1.7 3.5 0.00 0.00 0.00 89 1013.8
20260507102432 29 51 1.7 3.5 0.00 0.00 0.00 89 1013.9
20260507102315 29 51 1.7 3.5 0.00 0.00 0.00 89 1013.8
20260507102238 29 51 2.6 3.5 0.00 0.00 0.00 89 1013.9
20260507102120 29 51 2.6 3.5 0.00 0.00 0.00 89 1013.8
20260507102044 29 51 2.6 3.5 0.00 0.00 0.00 89 1013.9
20260507101910 29 51 2.6 3.5 0.00 0.00 0.00 89 1013.9
20260507101813 29 51 2.6 3.5 0.00 0.00 0.00 89 1013.9
20260507101714 29 51 1.7 3.5 0.00 0.00 0.00 90 1013.9
20260507101615 29 263 0.0 1.7 0.00 0.00 0.00 89 1013.9
20260507101516 29 263 0.0 1.7 0.00 0.00 0.00 90 1013.9
20260507101416 29 263 0.0 1.7 0.00 0.00 0.00 89 1013.8
20260507101320 29 263 0.0 1.7 0.00 0.00 0.00 89 1013.7
20260507101206 29 263 0.0 2.6 0.00 0.00 0.00 89 1013.8
20260507101130 29 263 0.0 2.6 0.00 0.00 0.00 89 1013.8
20260507101006 29 263 0.9 2.6 0.00 0.00 0.00 89 1013.7
20260507100929 29 263 0.9 2.6 0.00 0.00 0.00 89 1013.8